UAL18 LIMC-KEWR

Flight info

Callsign UAL18
Flight time 8h 27m
Altitude 34000
Route AOSTA DCT ORSUD DCT MOLUS DCT UNKIR DCT DJL DCT OKRIX DCT AMODO DCT COHPA UM729 RESMI UN491 LGL UN502 SENLO/N0475F360 UN502 JSY DCT LIZAD DCT LULOX DCT ADARA/M083F360 DCT 5130N02000W 51N030W 51N040W 5030N05000W DCT BUDAR/N0477F360 N446A MIILS/N0482F380 DCT CBIRD DCT HANAA FLOSI4
Aircraft B772/H-SDE2E3FGHIJ5LORVWXY/LB1D1

Departure

Time 2026-05-07 06:08
Airport Milan Malpensa International Airport (LIMC)

Arrival

Time 2026-05-07 14:36
Airport Newark Liberty International Airport (KEWR)
Time Latitude Longitude Altitude Speed Heading
2026-05-07 05:20 45.62865 8.71638 757 ft 0 kts 233°
2026-05-07 05:52 45.62866 8.71639 757 ft 1 kts 233°
2026-05-07 05:52 45.62876 8.71659 752 ft 3 kts 233°
2026-05-07 05:53 45.62890 8.71685 751 ft 3 kts 233°
2026-05-07 05:53 45.62905 8.71712 757 ft 3 kts 233°
2026-05-07 05:53 45.62916 8.71735 753 ft 3 kts 226°
2026-05-07 05:53 45.62934 8.71749 757 ft 3 kts 181°
2026-05-07 05:54 45.62957 8.71746 754 ft 3 kts 167°
2026-05-07 05:54 45.62964 8.71744 757 ft 3 kts 167°
2026-05-07 05:54 45.62941 8.71751 752 ft 3 kts 168°
2026-05-07 05:54 45.62918 8.71758 757 ft 3 kts 168°
2026-05-07 05:55 45.62898 8.71764 752 ft 0 kts 169°
2026-05-07 05:59 45.62893 8.71765 755 ft 1 kts 169°
2026-05-07 05:59 45.62873 8.71770 754 ft 4 kts 170°
2026-05-07 06:00 45.62844 8.71777 754 ft 4 kts 170°
2026-05-07 06:00 45.62811 8.71786 752 ft 5 kts 168°
2026-05-07 06:00 45.62763 8.71800 755 ft 10 kts 169°
2026-05-07 06:00 45.62696 8.71818 752 ft 10 kts 169°
2026-05-07 06:01 45.62630 8.71835 755 ft 10 kts 169°
2026-05-07 06:01 45.62564 8.71853 752 ft 10 kts 169°
2026-05-07 06:01 45.62498 8.71871 756 ft 10 kts 169°
2026-05-07 06:01 45.62433 8.71888 754 ft 10 kts 169°
2026-05-07 06:02 45.62369 8.71907 755 ft 10 kts 168°
2026-05-07 06:02 45.62302 8.71926 756 ft 10 kts 168°
2026-05-07 06:02 45.62236 8.71945 752 ft 10 kts 168°
2026-05-07 06:02 45.62171 8.71964 757 ft 10 kts 169°
2026-05-07 06:03 45.62106 8.71981 756 ft 10 kts 169°
2026-05-07 06:03 45.62035 8.72000 754 ft 10 kts 169°
2026-05-07 06:03 45.61963 8.72019 753 ft 10 kts 169°
2026-05-07 06:03 45.61892 8.72039 755 ft 10 kts 169°
2026-05-07 06:04 45.61820 8.72059 756 ft 10 kts 169°
2026-05-07 06:04 45.61749 8.72079 753 ft 10 kts 169°
2026-05-07 06:04 45.61677 8.72099 757 ft 10 kts 169°
2026-05-07 06:04 45.61606 8.72120 757 ft 10 kts 169°
2026-05-07 06:05 45.61535 8.72139 756 ft 10 kts 169°
2026-05-07 06:05 45.61463 8.72159 755 ft 10 kts 169°
2026-05-07 06:05 45.61416 8.72175 755 ft 10 kts 159°
2026-05-07 06:05 45.61385 8.72261 756 ft 10 kts 88°
2026-05-07 06:06 45.61397 8.72364 757 ft 10 kts 78°
2026-05-07 06:06 45.61411 8.72466 755 ft 10 kts 78°
2026-05-07 06:06 45.61425 8.72567 752 ft 10 kts 78°
2026-05-07 06:06 45.61440 8.72674 750 ft 11 kts 76°
2026-05-07 06:07 45.61506 8.72708 753 ft 10 kts 349°
2026-05-07 06:07 45.61514 8.72706 753 ft 0 kts 349°
2026-05-07 06:07 45.61548 8.72696 749 ft 16 kts 349°
2026-05-07 06:07 45.61849 8.72613 750 ft 79 kts 349°
2026-05-07 06:08 45.62613 8.72401 748 ft 142 kts 349°
2026-05-07 06:08 45.63748 8.72072 853 ft 183 kts 348°
2026-05-07 06:08 45.65061 8.71702 1322 ft 202 kts 348°
2026-05-07 06:08 45.66329 8.70808 1779 ft 212 kts 311°
2026-05-07 06:09 45.66905 8.68879 2399 ft 218 kts 274°
2026-05-07 06:09 45.66643 8.66874 3013 ft 211 kts 252°
2026-05-07 06:09 45.66200 8.64868 3527 ft 211 kts 252°
2026-05-07 06:09 45.65721 8.62896 3999 ft 210 kts 253°
2026-05-07 06:10 45.65669 8.60831 4317 ft 211 kts 283°
2026-05-07 06:10 45.66009 8.58775 4714 ft 214 kts 283°
2026-05-07 06:10 45.66316 8.56690 5156 ft 214 kts 281°
2026-05-07 06:10 45.66615 8.54583 5601 ft 217 kts 281°
2026-05-07 06:11 45.66910 8.52450 6032 ft 221 kts 281°
2026-05-07 06:11 45.67213 8.50258 6371 ft 228 kts 278°
2026-05-07 06:11 45.67079 8.48015 6612 ft 232 kts 242°
2026-05-07 06:11 45.66587 8.46979 6768 ft 233 kts 228°
2026-05-07 06:12 45.65827 8.45748 6974 ft 235 kts 229°
2026-05-07 06:12 45.64769 8.43951 7395 ft 236 kts 230°
2026-05-07 06:12 45.63725 8.42181 7899 ft 236 kts 230°
2026-05-07 06:12 45.62665 8.40380 8374 ft 239 kts 230°
2026-05-07 06:13 45.61561 8.38499 8530 ft 256 kts 230°
2026-05-07 06:13 45.60380 8.36489 8707 ft 272 kts 230°
2026-05-07 06:13 45.59138 8.34378 9055 ft 282 kts 230°
2026-05-07 06:13 45.58127 8.31999 9353 ft 287 kts 255°
2026-05-07 06:14 45.58044 8.29168 9831 ft 288 kts 282°
2026-05-07 06:14 45.58626 8.26438 10218 ft 292 kts 288°
2026-05-07 06:14 45.59301 8.23608 10359 ft 309 kts 288°
2026-05-07 06:14 45.60008 8.20625 10504 ft 326 kts 288°
2026-05-07 06:15 45.60749 8.17459 10656 ft 346 kts 288°
2026-05-07 06:15 45.61526 8.14135 11036 ft 358 kts 288°
2026-05-07 06:15 45.62320 8.10734 11606 ft 365 kts 287°
2026-05-07 06:15 45.63123 8.07287 12379 ft 366 kts 287°
2026-05-07 06:16 45.63923 8.03829 13174 ft 367 kts 287°
2026-05-07 06:16 45.64725 8.00346 13855 ft 371 kts 287°
2026-05-07 06:16 45.65511 7.96933 14425 ft 375 kts 287°
2026-05-07 06:16 45.65927 7.95109 14731 ft 378 kts 287°
2026-05-07 06:17 45.66546 7.92417 15208 ft 380 kts 287°
2026-05-07 06:17 45.67040 7.90269 15568 ft 382 kts 287°
2026-05-07 06:17 45.67600 7.87828 15963 ft 384 kts 287°
2026-05-07 06:17 45.68431 7.84187 16545 ft 387 kts 287°
2026-05-07 06:18 45.69268 7.80512 17107 ft 390 kts 287°
2026-05-07 06:18 45.70109 7.76803 17670 ft 393 kts 287°
2026-05-07 06:18 45.70957 7.73066 18217 ft 396 kts 287°
2026-05-07 06:18 45.71810 7.69309 18738 ft 399 kts 287°
2026-05-07 06:19 45.72670 7.65518 19285 ft 401 kts 287°
2026-05-07 06:19 45.73526 7.61707 19779 ft 403 kts 287°
2026-05-07 06:19 45.74384 7.57885 20250 ft 405 kts 287°
2026-05-07 06:19 45.75250 7.54034 20725 ft 407 kts 287°
2026-05-07 06:20 45.76120 7.50163 21195 ft 409 kts 287°
2026-05-07 06:20 45.76994 7.46274 21640 ft 411 kts 286°
2026-05-07 06:20 45.77870 7.42364 22029 ft 414 kts 286°
2026-05-07 06:20 45.78754 7.38442 22421 ft 412 kts 288°
2026-05-07 06:21 45.80025 7.34799 22590 ft 421 kts 305°
2026-05-07 06:21 45.82113 7.31833 22930 ft 427 kts 322°
2026-05-07 06:21 45.84594 7.29383 23285 ft 429 kts 323°
2026-05-07 06:21 45.87036 7.27001 23610 ft 431 kts 323°
2026-05-07 06:22 45.89518 7.24553 23939 ft 434 kts 323°
2026-05-07 06:22 45.94475 7.19556 24738 ft 437 kts 322°
2026-05-07 06:22 45.96966 7.17021 25082 ft 439 kts 322°
2026-05-07 06:23 45.99458 7.14466 25412 ft 442 kts 322°
2026-05-07 06:23 46.01960 7.11894 25759 ft 444 kts 322°
2026-05-07 06:23 46.04478 7.09304 26089 ft 446 kts 322°
2026-05-07 06:23 46.07006 7.06703 26404 ft 448 kts 322°
2026-05-07 06:24 46.09553 7.04083 26722 ft 451 kts 323°
2026-05-07 06:24 46.12115 7.01448 27051 ft 453 kts 322°
2026-05-07 06:24 46.14599 6.98888 27349 ft 455 kts 322°
2026-05-07 06:24 46.17180 6.96219 27671 ft 456 kts 322°
2026-05-07 06:25 46.19763 6.93544 27965 ft 458 kts 322°
2026-05-07 06:25 46.22356 6.90857 28256 ft 460 kts 322°
2026-05-07 06:25 46.24967 6.88149 28534 ft 462 kts 322°
2026-05-07 06:25 46.27581 6.85435 28810 ft 464 kts 322°
2026-05-07 06:26 46.30210 6.82704 29083 ft 466 kts 322°
2026-05-07 06:26 46.32853 6.79955 29365 ft 468 kts 322°
2026-05-07 06:26 46.35503 6.77198 29655 ft 470 kts 322°
2026-05-07 06:26 46.38162 6.74424 29904 ft 471 kts 322°
2026-05-07 06:27 46.40772 6.71661 30074 ft 472 kts 320°
2026-05-07 06:27 46.43222 6.68482 30204 ft 474 kts 312°
2026-05-07 06:27 46.45387 6.64885 30429 ft 473 kts 307°
2026-05-07 06:27 46.47263 6.60988 30746 ft 471 kts 300°
2026-05-07 06:28 46.48904 6.56884 31022 ft 470 kts 298°
2026-05-07 06:28 46.50506 6.52748 31296 ft 469 kts 298°
2026-05-07 06:28 46.52093 6.48622 31561 ft 468 kts 298°
2026-05-07 06:28 46.53690 6.44491 31813 ft 468 kts 298°
2026-05-07 06:29 46.55292 6.40378 32067 ft 468 kts 298°
2026-05-07 06:29 46.56899 6.36274 32335 ft 467 kts 298°
2026-05-07 06:29 46.58508 6.32170 32576 ft 467 kts 298°
2026-05-07 06:29 46.60114 6.28075 32832 ft 466 kts 298°
2026-05-07 06:30 46.61719 6.23981 33065 ft 467 kts 298°
2026-05-07 06:30 46.63324 6.19880 33277 ft 466 kts 298°
2026-05-07 06:30 46.64928 6.15778 33513 ft 466 kts 298°
2026-05-07 06:30 46.66526 6.11681 33781 ft 465 kts 298°
2026-05-07 06:31 46.68121 6.07589 33933 ft 466 kts 297°
2026-05-07 06:31 46.69707 6.03452 33980 ft 468 kts 297°
2026-05-07 06:31 46.72876 5.95305 34008 ft 468 kts 298°
2026-05-07 06:32 46.76048 5.87129 34015 ft 462 kts 298°
2026-05-07 06:32 46.79199 5.78956 34021 ft 462 kts 298°
2026-05-07 06:33 46.82885 5.71253 34015 ft 465 kts 308°
2026-05-07 06:33 46.87434 5.64517 34024 ft 467 kts 315°
2026-05-07 06:34 46.92208 5.58066 34018 ft 468 kts 315°
2026-05-07 06:34 46.96984 5.51569 34019 ft 469 kts 315°
2026-05-07 06:35 47.01729 5.45028 34017 ft 469 kts 315°
2026-05-07 06:35 47.06472 5.38459 34020 ft 469 kts 315°
2026-05-07 06:36 47.11181 5.31918 34014 ft 469 kts 315°
2026-05-07 06:36 47.15927 5.25315 34025 ft 471 kts 315°
2026-05-07 06:37 47.20675 5.18695 34023 ft 470 kts 315°
2026-05-07 06:37 47.25409 5.12052 34017 ft 470 kts 313°
2026-05-07 06:38 47.29570 5.04664 34015 ft 468 kts 303°
2026-05-07 06:38 47.33154 4.96861 34017 ft 467 kts 303°
2026-05-07 06:39 47.36792 4.88917 34022 ft 467 kts 303°
2026-05-07 06:39 47.40446 4.80987 34021 ft 467 kts 303°
2026-05-07 06:40 47.44101 4.73073 34016 ft 466 kts 303°
2026-05-07 06:40 47.47744 4.65166 34016 ft 465 kts 303°
2026-05-07 06:41 47.51380 4.57251 34013 ft 465 kts 303°
2026-05-07 06:41 47.55005 4.49331 34018 ft 465 kts 303°
2026-05-07 06:42 47.58603 4.41454 34018 ft 465 kts 303°
2026-05-07 06:42 47.62215 4.33517 34015 ft 464 kts 303°
2026-05-07 06:43 47.65822 4.25570 34022 ft 466 kts 303°
2026-05-07 06:43 47.69439 4.17581 34016 ft 466 kts 303°
2026-05-07 06:44 47.73056 4.09569 34021 ft 467 kts 303°
2026-05-07 06:44 47.76669 4.01525 34028 ft 469 kts 303°
2026-05-07 06:45 47.80237 3.93572 34028 ft 470 kts 303°
2026-05-07 06:45 47.83853 3.85490 34028 ft 469 kts 303°
2026-05-07 06:46 47.87466 3.77398 34024 ft 469 kts 303°
2026-05-07 06:46 47.91066 3.69302 34023 ft 468 kts 303°
2026-05-07 06:47 47.94657 3.61225 34037 ft 467 kts 305°
2026-05-07 06:47 47.98849 3.53843 34032 ft 467 kts 315°
2026-05-07 06:48 48.03726 3.47494 34048 ft 466 kts 319°
2026-05-07 06:48 48.08670 3.41233 34046 ft 466 kts 319°
2026-05-07 06:49 48.13575 3.34946 34052 ft 468 kts 319°
2026-05-07 06:49 48.18492 3.28567 34047 ft 468 kts 319°
2026-05-07 06:50 48.23399 3.22185 34052 ft 467 kts 319°
2026-05-07 06:50 48.28304 3.15797 34036 ft 467 kts 319°
2026-05-07 06:51 48.33203 3.09406 34050 ft 467 kts 319°
2026-05-07 06:51 48.38088 3.02995 34051 ft 465 kts 317°
2026-05-07 06:52 48.41989 2.95478 34054 ft 465 kts 298°
2026-05-07 06:52 48.44258 2.86407 34054 ft 465 kts 285°
2026-05-07 06:53 48.45959 2.77002 34047 ft 465 kts 286°
2026-05-07 06:53 48.47743 2.67641 34046 ft 465 kts 287°
2026-05-07 06:54 48.49525 2.58345 34048 ft 464 kts 287°
2026-05-07 06:54 48.51305 2.48990 34047 ft 464 kts 287°
2026-05-07 06:55 48.52785 2.41159 34049 ft 463 kts 287°
2026-05-07 06:55 48.54542 2.31805 34047 ft 463 kts 287°
2026-05-07 06:56 48.56296 2.22449 34046 ft 463 kts 286°
2026-05-07 06:56 48.57821 2.13086 34031 ft 462 kts 283°
2026-05-07 06:57 48.59116 2.03570 34047 ft 463 kts 282°
2026-05-07 06:57 48.60388 1.94197 34050 ft 463 kts 282°
2026-05-07 06:58 48.61699 1.84654 34043 ft 464 kts 282°
2026-05-07 06:58 48.63014 1.75108 34048 ft 463 kts 282°
2026-05-07 06:59 48.64308 1.65580 34047 ft 462 kts 282°
2026-05-07 06:59 48.65605 1.56054 34044 ft 463 kts 282°
2026-05-07 07:00 48.66900 1.46522 34046 ft 463 kts 282°
2026-05-07 07:00 48.68191 1.36969 34063 ft 465 kts 282°
2026-05-07 07:01 48.68833 1.32173 34209 ft 466 kts 282°
2026-05-07 07:01 48.69472 1.27361 34445 ft 465 kts 282°
2026-05-07 07:01 48.70106 1.22565 34707 ft 464 kts 282°
2026-05-07 07:01 48.70737 1.17783 34906 ft 464 kts 282°
2026-05-07 07:02 48.71367 1.12989 35052 ft 465 kts 281°
2026-05-07 07:02 48.71996 1.08182 35239 ft 465 kts 281°
2026-05-07 07:02 48.72622 1.03387 35446 ft 465 kts 281°
2026-05-07 07:02 48.73227 0.98733 35637 ft 465 kts 281°
2026-05-07 07:03 48.73852 0.93928 35805 ft 465 kts 281°
2026-05-07 07:03 48.74471 0.89123 35954 ft 466 kts 281°
2026-05-07 07:03 48.75722 0.79444 36044 ft 468 kts 281°
2026-05-07 07:04 48.76965 0.69779 36044 ft 466 kts 281°
2026-05-07 07:04 48.78196 0.60154 36043 ft 464 kts 281°
2026-05-07 07:05 48.79492 0.50584 36037 ft 463 kts 284°
2026-05-07 07:05 48.81190 0.41211 36050 ft 461 kts 285°
2026-05-07 07:06 48.82918 0.31838 36049 ft 461 kts 285°
2026-05-07 07:06 48.84615 0.22455 36051 ft 461 kts 285°
2026-05-07 07:07 48.86296 0.13049 36055 ft 462 kts 285°
2026-05-07 07:07 48.87961 0.03670 36048 ft 464 kts 284°
2026-05-07 07:08 48.89609 -0.05659 36053 ft 465 kts 284°
2026-05-07 07:08 48.91281 -0.15162 36049 ft 466 kts 284°
2026-05-07 07:09 48.92945 -0.24667 36045 ft 466 kts 284°
2026-05-07 07:09 48.94571 -0.34213 36046 ft 466 kts 283°
2026-05-07 07:10 48.96168 -0.43762 36048 ft 466 kts 283°
2026-05-07 07:10 48.97761 -0.53334 36049 ft 466 kts 283°
2026-05-07 07:11 48.99347 -0.62885 36049 ft 465 kts 283°
2026-05-07 07:11 49.00924 -0.72434 36035 ft 465 kts 283°
2026-05-07 07:12 49.02493 -0.81983 36044 ft 465 kts 283°
2026-05-07 07:12 49.04055 -0.91535 36048 ft 465 kts 283°
2026-05-07 07:13 49.05586 -1.00961 36048 ft 465 kts 283°
2026-05-07 07:13 49.07135 -1.10532 36046 ft 465 kts 283°
2026-05-07 07:14 49.08663 -1.20041 36038 ft 464 kts 283°
2026-05-07 07:14 49.10209 -1.29593 36042 ft 463 kts 283°
2026-05-07 07:15 49.11759 -1.39144 36049 ft 464 kts 283°
2026-05-07 07:15 49.13299 -1.48701 36042 ft 464 kts 283°
2026-05-07 07:16 49.14825 -1.58261 36044 ft 463 kts 283°
2026-05-07 07:16 49.16343 -1.67833 36040 ft 463 kts 283°
2026-05-07 07:17 49.17855 -1.77402 36042 ft 464 kts 283°
2026-05-07 07:17 49.19362 -1.86998 36048 ft 464 kts 283°
2026-05-07 07:18 49.20861 -1.96605 36043 ft 465 kts 283°
2026-05-07 07:18 49.22337 -2.06096 36050 ft 466 kts 283°
2026-05-07 07:19 49.23957 -2.15699 36049 ft 466 kts 284°
2026-05-07 07:19 49.25625 -2.25284 36037 ft 466 kts 284°
2026-05-07 07:20 49.27284 -2.34879 36046 ft 465 kts 284°
2026-05-07 07:20 49.28914 -2.44472 36050 ft 466 kts 284°
2026-05-07 07:21 49.30521 -2.54012 36056 ft 465 kts 283°
2026-05-07 07:21 49.32117 -2.63599 36042 ft 464 kts 283°
2026-05-07 07:22 49.33714 -2.73209 36054 ft 465 kts 283°
2026-05-07 07:22 49.35307 -2.82821 36043 ft 465 kts 283°
2026-05-07 07:23 49.36888 -2.92435 36045 ft 465 kts 283°
2026-05-07 07:23 49.38441 -3.01924 36051 ft 466 kts 283°
2026-05-07 07:24 49.40013 -3.11583 36046 ft 466 kts 283°
2026-05-07 07:24 49.41577 -3.21254 36037 ft 467 kts 283°
2026-05-07 07:25 49.43913 -3.35787 36053 ft 467 kts 283°
2026-05-07 07:26 49.45456 -3.45465 36047 ft 467 kts 283°
2026-05-07 07:26 49.46990 -3.55158 36030 ft 467 kts 283°
2026-05-07 07:27 49.48520 -3.64864 36015 ft 466 kts 283°
2026-05-07 07:27 49.50036 -3.74540 36020 ft 465 kts 283°
2026-05-07 07:28 49.51539 -3.84199 36018 ft 465 kts 283°
2026-05-07 07:28 49.53039 -3.93870 36020 ft 464 kts 282°
2026-05-07 07:29 49.54502 -4.03399 36021 ft 464 kts 282°
2026-05-07 07:29 49.55980 -4.13078 36015 ft 465 kts 282°
2026-05-07 07:30 49.57457 -4.22782 36008 ft 466 kts 282°
2026-05-07 07:30 49.58940 -4.32488 36014 ft 464 kts 284°
2026-05-07 07:31 49.60986 -4.41926 36023 ft 464 kts 289°
2026-05-07 07:31 49.63167 -4.51250 36018 ft 466 kts 289°
2026-05-07 07:32 49.65349 -4.60668 36020 ft 466 kts 289°
2026-05-07 07:32 49.67507 -4.70121 36017 ft 467 kts 288°
2026-05-07 07:33 49.69655 -4.79607 36019 ft 468 kts 288°
2026-05-07 07:33 49.71800 -4.89111 36020 ft 469 kts 288°
2026-05-07 07:34 49.73940 -4.98645 36017 ft 469 kts 288°
2026-05-07 07:34 49.76036 -5.08026 36017 ft 469 kts 288°
2026-05-07 07:35 49.78185 -5.17553 36018 ft 468 kts 288°
2026-05-07 07:35 49.80280 -5.27077 36017 ft 468 kts 288°
2026-05-07 07:36 49.82370 -5.36626 36021 ft 468 kts 288°
2026-05-07 07:36 49.84464 -5.46173 36017 ft 468 kts 288°
2026-05-07 07:37 49.86556 -5.55713 36019 ft 468 kts 288°
2026-05-07 07:37 49.88637 -5.65277 36022 ft 468 kts 288°
2026-05-07 07:38 49.90694 -5.74785 36019 ft 468 kts 288°
2026-05-07 07:38 49.92769 -5.84432 36019 ft 469 kts 287°
2026-05-07 07:39 49.94833 -5.94038 36021 ft 469 kts 287°
2026-05-07 07:39 49.96847 -6.03468 36022 ft 471 kts 287°
2026-05-07 07:40 49.98899 -6.13136 36019 ft 472 kts 287°
2026-05-07 07:40 50.00938 -6.22811 36019 ft 471 kts 287°
2026-05-07 07:41 50.02980 -6.32494 36017 ft 471 kts 287°
2026-05-07 07:41 50.05008 -6.42167 36017 ft 470 kts 287°
2026-05-07 07:42 50.07030 -6.51853 36018 ft 470 kts 287°
2026-05-07 07:42 50.08699 -6.59910 36017 ft 470 kts 287°
2026-05-07 07:43 50.10716 -6.69673 36018 ft 471 kts 287°
2026-05-07 07:43 50.12712 -6.79385 36021 ft 471 kts 287°
2026-05-07 07:44 50.14691 -6.89061 36021 ft 472 kts 287°
2026-05-07 07:44 50.16682 -6.98830 36020 ft 474 kts 287°
2026-05-07 07:45 50.18637 -7.08486 36019 ft 474 kts 287°
2026-05-07 07:45 50.20617 -7.18306 36019 ft 475 kts 287°
2026-05-07 07:46 50.22592 -7.28141 36013 ft 474 kts 286°
2026-05-07 07:46 50.24550 -7.37981 36011 ft 474 kts 286°
2026-05-07 07:47 50.26508 -7.47838 36018 ft 475 kts 286°
2026-05-07 07:47 50.28459 -7.57715 36004 ft 476 kts 286°
2026-05-07 07:48 50.30407 -7.67612 36007 ft 476 kts 286°
2026-05-07 07:48 50.32345 -7.77512 36006 ft 475 kts 286°
2026-05-07 07:49 50.34262 -7.87403 36001 ft 475 kts 286°
2026-05-07 07:49 50.36183 -7.97298 35998 ft 475 kts 286°
2026-05-07 07:50 50.38071 -8.07046 36000 ft 474 kts 286°
2026-05-07 07:50 50.39998 -8.16917 35999 ft 474 kts 286°
2026-05-07 07:51 50.41924 -8.26813 36001 ft 474 kts 286°
2026-05-07 07:51 50.43825 -8.36638 35993 ft 474 kts 286°
2026-05-07 07:52 50.45732 -8.46564 35992 ft 475 kts 285°
2026-05-07 07:52 50.47634 -8.56497 35987 ft 476 kts 285°
2026-05-07 07:53 50.49529 -8.66474 35980 ft 477 kts 285°
2026-05-07 07:53 50.51414 -8.76462 35981 ft 477 kts 285°
2026-05-07 07:54 50.53290 -8.86462 35981 ft 477 kts 285°
2026-05-07 07:54 50.55165 -8.96485 35978 ft 479 kts 285°
2026-05-07 07:55 50.57009 -9.06382 35987 ft 479 kts 285°
2026-05-07 07:55 50.58869 -9.16434 35982 ft 479 kts 285°
2026-05-07 07:56 50.60723 -9.26504 35981 ft 479 kts 285°
2026-05-07 07:56 50.62566 -9.36578 35981 ft 479 kts 285°
2026-05-07 07:57 50.64400 -9.46656 35982 ft 479 kts 285°
2026-05-07 07:57 50.66224 -9.56751 35984 ft 478 kts 285°
2026-05-07 07:58 50.68044 -9.66844 35991 ft 478 kts 285°
2026-05-07 07:58 50.69852 -9.76950 35988 ft 478 kts 285°
2026-05-07 07:59 50.71649 -9.87050 35979 ft 478 kts 285°
2026-05-07 07:59 50.73443 -9.97163 35981 ft 478 kts 284°
2026-05-07 08:00 50.75184 -10.07055 35981 ft 478 kts 284°
2026-05-07 08:00 50.76969 -10.17249 35979 ft 479 kts 284°
2026-05-07 08:01 50.78721 -10.27322 35981 ft 479 kts 284°
2026-05-07 08:01 50.80479 -10.37470 35979 ft 478 kts 284°
2026-05-07 08:02 50.82229 -10.47627 35978 ft 478 kts 284°
2026-05-07 08:02 50.83965 -10.57782 35981 ft 478 kts 284°
2026-05-07 08:03 50.85690 -10.67949 35984 ft 479 kts 284°
2026-05-07 08:03 50.87415 -10.78133 35981 ft 479 kts 284°
2026-05-07 08:04 50.89126 -10.88326 35981 ft 479 kts 284°
2026-05-07 08:04 50.90830 -10.98530 35982 ft 479 kts 284°
2026-05-07 08:05 50.92499 -11.08580 35982 ft 479 kts 284°
2026-05-07 08:05 50.94186 -11.18802 35980 ft 479 kts 284°
2026-05-07 08:06 50.95867 -11.29039 35981 ft 480 kts 284°
2026-05-07 08:06 50.97537 -11.39279 35984 ft 480 kts 283°
2026-05-07 08:07 50.99201 -11.49548 35980 ft 480 kts 283°
2026-05-07 08:07 51.00841 -11.59749 35984 ft 480 kts 283°
2026-05-07 08:08 51.02497 -11.70083 35981 ft 480 kts 283°
2026-05-07 08:08 51.04131 -11.80371 35986 ft 482 kts 283°
2026-05-07 08:09 51.05754 -11.90631 35980 ft 481 kts 283°
2026-05-07 08:09 51.07347 -12.00770 35975 ft 479 kts 283°
2026-05-07 08:10 51.08956 -12.11050 35988 ft 478 kts 283°
2026-05-07 08:10 51.10553 -12.21313 35975 ft 478 kts 283°
2026-05-07 08:11 51.12137 -12.31578 35986 ft 477 kts 283°
2026-05-07 08:11 51.13706 -12.41828 35987 ft 476 kts 283°
2026-05-07 08:12 51.15259 -12.52052 35978 ft 474 kts 283°
2026-05-07 08:12 51.16805 -12.62267 35982 ft 474 kts 283°
2026-05-07 08:13 51.18343 -12.72490 35989 ft 474 kts 282°
2026-05-07 08:13 51.19872 -12.82712 35983 ft 474 kts 282°
2026-05-07 08:14 51.21390 -12.92949 35980 ft 474 kts 282°
2026-05-07 08:14 51.22878 -13.03033 35982 ft 474 kts 282°
2026-05-07 08:15 51.24370 -13.13213 35982 ft 474 kts 282°
2026-05-07 08:15 51.25869 -13.23519 35981 ft 474 kts 282°
2026-05-07 08:16 51.27337 -13.33691 35981 ft 473 kts 282°
2026-05-07 08:16 51.28805 -13.43920 35982 ft 472 kts 282°
2026-05-07 08:17 51.30261 -13.54140 35982 ft 472 kts 282°
2026-05-07 08:17 51.31722 -13.64434 35991 ft 472 kts 282°
2026-05-07 08:18 51.33151 -13.74590 36002 ft 471 kts 282°
2026-05-07 08:18 51.34577 -13.84808 36000 ft 470 kts 281°
2026-05-07 08:19 51.35998 -13.95028 35995 ft 470 kts 281°
2026-05-07 08:19 51.37384 -14.05088 35998 ft 470 kts 281°
2026-05-07 08:20 51.38778 -14.15283 36000 ft 469 kts 281°
2026-05-07 08:20 51.40162 -14.25484 35998 ft 468 kts 281°
2026-05-07 08:21 51.41541 -14.35679 35997 ft 468 kts 281°
2026-05-07 08:21 51.42903 -14.45851 35999 ft 467 kts 281°
2026-05-07 08:22 51.44260 -14.56039 35999 ft 467 kts 281°
2026-05-07 08:22 51.45606 -14.66221 35997 ft 467 kts 281°
2026-05-07 08:23 51.46945 -14.76422 36006 ft 467 kts 280°
2026-05-07 08:23 51.48274 -14.86626 36009 ft 467 kts 280°
2026-05-07 08:24 51.49587 -14.96813 36007 ft 466 kts 279°
2026-05-07 08:24 51.50241 -15.06974 36012 ft 464 kts 270°
2026-05-07 08:25 51.50408 -15.17333 36010 ft 464 kts 270°
2026-05-07 08:25 51.50561 -15.27623 36010 ft 464 kts 270°
2026-05-07 08:26 51.50834 -15.43222 36004 ft 464 kts 270°
2026-05-07 08:26 51.51011 -15.53490 36007 ft 463 kts 270°
2026-05-07 08:27 51.51178 -15.63809 36012 ft 462 kts 270°
2026-05-07 08:27 51.51335 -15.74104 36008 ft 461 kts 269°
2026-05-07 08:28 51.51488 -15.84381 36008 ft 460 kts 269°
2026-05-07 08:28 51.51628 -15.94626 36005 ft 459 kts 269°
2026-05-07 08:29 51.51733 -16.02961 36014 ft 459 kts 269°
2026-05-07 08:29 51.51857 -16.13215 36009 ft 460 kts 269°
2026-05-07 08:30 51.51972 -16.23477 36009 ft 460 kts 269°
2026-05-07 08:30 51.52079 -16.33736 36014 ft 460 kts 269°
2026-05-07 08:31 51.52175 -16.44011 36012 ft 460 kts 269°
2026-05-07 08:31 51.52261 -16.54283 36009 ft 460 kts 269°
2026-05-07 08:32 51.52344 -16.64549 36012 ft 459 kts 269°
2026-05-07 08:32 51.52413 -16.74787 36009 ft 458 kts 269°
2026-05-07 08:33 51.52471 -16.85020 36009 ft 458 kts 268°
2026-05-07 08:33 51.52523 -16.95241 36012 ft 457 kts 268°
2026-05-07 08:34 51.52570 -17.05295 36013 ft 458 kts 268°
2026-05-07 08:34 51.52581 -17.15561 36018 ft 459 kts 268°
2026-05-07 08:35 51.52624 -17.25794 36007 ft 456 kts 268°
2026-05-07 08:35 51.52649 -17.35898 36007 ft 454 kts 268°
2026-05-07 08:36 51.52657 -17.46002 36007 ft 452 kts 268°
2026-05-07 08:36 51.52655 -17.56065 36003 ft 449 kts 268°
2026-05-07 08:37 51.52646 -17.66073 36010 ft 447 kts 268°
2026-05-07 08:37 51.52626 -17.76078 36010 ft 448 kts 267°
2026-05-07 08:38 51.52599 -17.86168 36011 ft 449 kts 267°
2026-05-07 08:38 51.52560 -17.96128 36013 ft 450 kts 267°
2026-05-07 08:39 51.52519 -18.06037 36012 ft 451 kts 267°
2026-05-07 08:39 51.52468 -18.16129 36009 ft 453 kts 267°
2026-05-07 08:40 51.52406 -18.26220 36013 ft 452 kts 267°
2026-05-07 08:40 51.52336 -18.36321 36009 ft 452 kts 267°
2026-05-07 08:41 51.52255 -18.46418 36008 ft 452 kts 267°
2026-05-07 08:41 51.52171 -18.56504 36006 ft 452 kts 267°
2026-05-07 08:42 51.52079 -18.66574 36008 ft 451 kts 267°
2026-05-07 08:42 51.51972 -18.76650 36007 ft 451 kts 267°
2026-05-07 08:43 51.51858 -18.86712 36011 ft 451 kts 266°
2026-05-07 08:43 51.51738 -18.96764 36007 ft 450 kts 267°
2026-05-07 08:44 51.51613 -19.06623 36006 ft 448 kts 266°
2026-05-07 08:44 51.51475 -19.16621 36012 ft 448 kts 266°
2026-05-07 08:45 51.51330 -19.26621 36008 ft 448 kts 266°
2026-05-07 08:45 51.51175 -19.36623 36010 ft 448 kts 266°
2026-05-07 08:46 51.51012 -19.46550 36012 ft 448 kts 266°
2026-05-07 08:46 51.50841 -19.56555 36007 ft 449 kts 266°
2026-05-07 08:47 51.50662 -19.66572 36009 ft 449 kts 266°
2026-05-07 08:47 51.50473 -19.76592 36003 ft 449 kts 266°
2026-05-07 08:48 51.50275 -19.86615 36003 ft 450 kts 266°
2026-05-07 08:48 51.50070 -19.96657 36000 ft 449 kts 266°
2026-05-07 08:49 51.49908 -20.06528 36001 ft 450 kts 267°
2026-05-07 08:49 51.49837 -20.16579 36003 ft 450 kts 267°
2026-05-07 08:50 51.49771 -20.26623 36003 ft 450 kts 267°
2026-05-07 08:50 51.49680 -20.36668 36009 ft 450 kts 267°
2026-05-07 08:51 51.49574 -20.46709 36018 ft 450 kts 267°
2026-05-07 08:51 51.49458 -20.56749 36019 ft 450 kts 267°
2026-05-07 08:52 51.49331 -20.66798 36017 ft 450 kts 267°
2026-05-07 08:52 51.49203 -20.76820 36019 ft 449 kts 267°
2026-05-07 08:53 51.49064 -20.86782 36017 ft 450 kts 266°
2026-05-07 08:53 51.48911 -20.96814 36017 ft 450 kts 266°
2026-05-07 08:54 51.48754 -21.06685 36019 ft 449 kts 266°
2026-05-07 08:54 51.48590 -21.16685 36020 ft 449 kts 266°
2026-05-07 08:55 51.48419 -21.26705 36016 ft 449 kts 266°
2026-05-07 08:55 51.48232 -21.36738 36023 ft 450 kts 266°
2026-05-07 08:56 51.48041 -21.46766 36029 ft 450 kts 266°
2026-05-07 08:56 51.47839 -21.56791 36057 ft 449 kts 266°
2026-05-07 08:57 51.47625 -21.66807 36072 ft 450 kts 266°
2026-05-07 08:57 51.47411 -21.76847 36074 ft 451 kts 266°
2026-05-07 08:58 51.47187 -21.86855 36081 ft 453 kts 266°
2026-05-07 08:58 51.46950 -21.97017 36073 ft 454 kts 266°
2026-05-07 08:59 51.46709 -22.06916 36078 ft 454 kts 266°
2026-05-07 08:59 51.46455 -22.17054 36086 ft 455 kts 266°
2026-05-07 09:00 51.46192 -22.27219 36083 ft 456 kts 266°
2026-05-07 09:00 51.45918 -22.37389 36083 ft 457 kts 266°
2026-05-07 09:01 51.45633 -22.47548 36081 ft 456 kts 266°
2026-05-07 09:01 51.45342 -22.57701 36083 ft 456 kts 266°
2026-05-07 09:02 51.45047 -22.67829 36081 ft 455 kts 266°
2026-05-07 09:02 51.44740 -22.77952 36078 ft 454 kts 266°
2026-05-07 09:03 51.44422 -22.88064 36077 ft 454 kts 267°
2026-05-07 09:03 51.44098 -22.98156 36073 ft 454 kts 267°
2026-05-07 09:04 51.43770 -23.08080 36072 ft 453 kts 267°
2026-05-07 09:04 51.43430 -23.18172 36075 ft 454 kts 267°
2026-05-07 09:05 51.43080 -23.28268 36073 ft 454 kts 267°
2026-05-07 09:05 51.42721 -23.38374 36073 ft 454 kts 267°
2026-05-07 09:06 51.42355 -23.48493 36073 ft 455 kts 267°
2026-05-07 09:06 51.41978 -23.58634 36074 ft 456 kts 267°
2026-05-07 09:07 51.41592 -23.68798 36071 ft 457 kts 267°
2026-05-07 09:07 51.41192 -23.78968 36060 ft 458 kts 267°
2026-05-07 09:08 51.40783 -23.89152 36072 ft 458 kts 267°
2026-05-07 09:08 51.40371 -23.99265 36066 ft 458 kts 267°
2026-05-07 09:09 51.39954 -24.09295 36065 ft 459 kts 267°
2026-05-07 09:09 51.39519 -24.19561 36071 ft 460 kts 267°
2026-05-07 09:10 51.39078 -24.29786 36064 ft 460 kts 267°
2026-05-07 09:10 51.38629 -24.40019 36062 ft 461 kts 267°
2026-05-07 09:11 51.38166 -24.50249 36062 ft 461 kts 267°
2026-05-07 09:11 51.37696 -24.60418 36082 ft 461 kts 267°
2026-05-07 09:12 51.37220 -24.70647 36097 ft 461 kts 267°
2026-05-07 09:12 51.36724 -24.80945 36101 ft 461 kts 267°
2026-05-07 09:13 51.36229 -24.91103 36101 ft 461 kts 267°
2026-05-07 09:13 51.35734 -25.01185 36103 ft 462 kts 267°
2026-05-07 09:14 51.35219 -25.11429 36103 ft 462 kts 267°
2026-05-07 09:14 51.34691 -25.21673 36103 ft 461 kts 267°
2026-05-07 09:15 51.34157 -25.31903 36102 ft 462 kts 267°
2026-05-07 09:15 51.33616 -25.42140 36103 ft 462 kts 267°
2026-05-07 09:16 51.33064 -25.52379 36103 ft 464 kts 267°
2026-05-07 09:16 51.32595 -25.60932 36103 ft 464 kts 267°
2026-05-07 09:17 51.32026 -25.71211 36101 ft 465 kts 267°
2026-05-07 09:17 51.31444 -25.81489 36090 ft 464 kts 267°
2026-05-07 09:18 51.30858 -25.91752 36092 ft 463 kts 267°
2026-05-07 09:18 51.30269 -26.01832 36093 ft 462 kts 267°
2026-05-07 09:19 51.29668 -26.12064 36088 ft 463 kts 268°
2026-05-07 09:19 51.29056 -26.22298 36092 ft 464 kts 268°
2026-05-07 09:20 51.28429 -26.32562 36095 ft 465 kts 268°
2026-05-07 09:20 51.27796 -26.42775 36093 ft 466 kts 267°
2026-05-07 09:21 51.27148 -26.53074 36094 ft 466 kts 267°
2026-05-07 09:21 51.26496 -26.63357 36093 ft 466 kts 268°
2026-05-07 09:22 51.25834 -26.73647 36094 ft 466 kts 268°
2026-05-07 09:22 51.25162 -26.83935 36094 ft 467 kts 268°
2026-05-07 09:23 51.24477 -26.94231 36091 ft 467 kts 268°
2026-05-07 09:23 51.23798 -27.04370 36094 ft 467 kts 268°
2026-05-07 09:24 51.23100 -27.14668 36092 ft 467 kts 268°
2026-05-07 09:24 51.22395 -27.24958 36122 ft 466 kts 268°
2026-05-07 09:25 51.21677 -27.35225 36133 ft 466 kts 268°
2026-05-07 09:25 51.20949 -27.45501 36126 ft 465 kts 268°
2026-05-07 09:26 51.20221 -27.55738 36128 ft 465 kts 268°
2026-05-07 09:26 51.19477 -27.65996 36123 ft 466 kts 268°
2026-05-07 09:27 51.18720 -27.76258 36123 ft 466 kts 268°
2026-05-07 09:28 51.17571 -27.91658 36125 ft 467 kts 268°
2026-05-07 09:28 51.16806 -28.01780 36118 ft 467 kts 268°
2026-05-07 09:29 51.16021 -28.12054 36113 ft 467 kts 269°
2026-05-07 09:29 51.15223 -28.22325 36121 ft 467 kts 268°
2026-05-07 09:30 51.14423 -28.32534 36113 ft 468 kts 269°
2026-05-07 09:30 51.13610 -28.42803 36122 ft 467 kts 268°
2026-05-07 09:31 51.12789 -28.53053 36121 ft 467 kts 268°
2026-05-07 09:31 51.11958 -28.63321 36122 ft 468 kts 268°
2026-05-07 09:32 51.11114 -28.73602 36122 ft 469 kts 268°
2026-05-07 09:32 51.10263 -28.83886 36125 ft 468 kts 268°
2026-05-07 09:33 51.09407 -28.94158 36123 ft 469 kts 268°
2026-05-07 09:33 51.08549 -29.04295 36114 ft 470 kts 268°
2026-05-07 09:34 51.07667 -29.14601 36116 ft 470 kts 268°
2026-05-07 09:34 51.06773 -29.24889 36124 ft 470 kts 268°
2026-05-07 09:35 51.05876 -29.35188 36116 ft 470 kts 268°
2026-05-07 09:35 51.04968 -29.45483 36121 ft 470 kts 268°
2026-05-07 09:36 51.04047 -29.55772 36121 ft 470 kts 268°
2026-05-07 09:36 51.03121 -29.66064 36112 ft 470 kts 268°
2026-05-07 09:37 51.02187 -29.76334 36123 ft 470 kts 268°
2026-05-07 09:37 51.01246 -29.86601 36117 ft 470 kts 268°
2026-05-07 09:38 51.00316 -29.96847 36121 ft 466 kts 270°
2026-05-07 09:38 51.00196 -30.06778 36135 ft 456 kts 281°
2026-05-07 09:39 51.00654 -30.16818 36140 ft 457 kts 281°
2026-05-07 09:39 51.01104 -30.26894 36131 ft 458 kts 281°
2026-05-07 09:40 51.01521 -30.36996 36144 ft 459 kts 280°
2026-05-07 09:40 51.01918 -30.47100 36145 ft 459 kts 280°
2026-05-07 09:41 51.02306 -30.57227 36131 ft 459 kts 280°
2026-05-07 09:41 51.02682 -30.67363 36138 ft 460 kts 280°
2026-05-07 09:42 51.03048 -30.77488 36134 ft 459 kts 280°
2026-05-07 09:42 51.03409 -30.87607 36134 ft 458 kts 280°
2026-05-07 09:43 51.03765 -30.97722 36142 ft 459 kts 280°
2026-05-07 09:43 51.04098 -31.07665 36134 ft 458 kts 280°
2026-05-07 09:44 51.04428 -31.17744 36147 ft 456 kts 280°
2026-05-07 09:44 51.04761 -31.27809 36203 ft 456 kts 280°
2026-05-07 09:45 51.05077 -31.37872 36203 ft 456 kts 279°
2026-05-07 09:45 51.05380 -31.47886 36206 ft 457 kts 279°
2026-05-07 09:46 51.05682 -31.57993 36202 ft 458 kts 279°
2026-05-07 09:46 51.05977 -31.68092 36199 ft 458 kts 279°
2026-05-07 09:47 51.06257 -31.78204 36203 ft 458 kts 279°
2026-05-07 09:47 51.06531 -31.88327 36205 ft 459 kts 279°
2026-05-07 09:48 51.06794 -31.98464 36202 ft 459 kts 279°
2026-05-07 09:48 51.07045 -32.08441 36205 ft 458 kts 279°
2026-05-07 09:49 51.07292 -32.18556 36201 ft 458 kts 279°
2026-05-07 09:49 51.07533 -32.28659 36202 ft 457 kts 279°
2026-05-07 09:50 51.07761 -32.38747 36205 ft 456 kts 279°
2026-05-07 09:50 51.07981 -32.48831 36203 ft 457 kts 279°
2026-05-07 09:51 51.08189 -32.58908 36203 ft 456 kts 279°
2026-05-07 09:51 51.08395 -32.68982 36204 ft 456 kts 278°
2026-05-07 09:52 51.08590 -32.79050 36202 ft 455 kts 278°
2026-05-07 09:52 51.08780 -32.89117 36204 ft 456 kts 278°
2026-05-07 09:53 51.08957 -32.99206 36203 ft 456 kts 278°
2026-05-07 09:53 51.09121 -33.09146 36203 ft 457 kts 278°
2026-05-07 09:54 51.09279 -33.19166 36205 ft 456 kts 278°
2026-05-07 09:54 51.09428 -33.29258 36202 ft 456 kts 278°
2026-05-07 09:55 51.09575 -33.39413 36207 ft 457 kts 278°
2026-05-07 09:55 51.09711 -33.49533 36202 ft 458 kts 278°
2026-05-07 09:56 51.09835 -33.59593 36203 ft 457 kts 278°
2026-05-07 09:56 51.09951 -33.69709 36201 ft 457 kts 278°
2026-05-07 09:57 51.10057 -33.79802 36203 ft 456 kts 278°
2026-05-07 09:57 51.10153 -33.89894 36203 ft 455 kts 278°
2026-05-07 09:58 51.10249 -33.99956 36204 ft 455 kts 278°
2026-05-07 09:58 51.10330 -34.09864 36205 ft 454 kts 277°
2026-05-07 09:59 51.10404 -34.19922 36202 ft 454 kts 277°
2026-05-07 09:59 51.10465 -34.29979 36203 ft 455 kts 277°
2026-05-07 10:00 51.10520 -34.40036 36203 ft 454 kts 277°
2026-05-07 10:00 51.10567 -34.50074 36201 ft 454 kts 277°
2026-05-07 10:01 51.10607 -34.60126 36204 ft 454 kts 277°
2026-05-07 10:01 51.10637 -34.70179 36200 ft 454 kts 277°
2026-05-07 10:02 51.10657 -34.80216 36203 ft 454 kts 277°
2026-05-07 10:02 51.10668 -34.90201 36213 ft 454 kts 277°
2026-05-07 10:03 51.10674 -35.00207 36211 ft 454 kts 277°
2026-05-07 10:03 51.10667 -35.10138 36211 ft 454 kts 276°
2026-05-07 10:04 51.10651 -35.20183 36210 ft 455 kts 276°
2026-05-07 10:04 51.10634 -35.30265 36219 ft 456 kts 276°
2026-05-07 10:05 51.10605 -35.40348 36211 ft 456 kts 276°
2026-05-07 10:05 51.10572 -35.48795 36210 ft 455 kts 276°
2026-05-07 10:06 51.10525 -35.58866 36214 ft 455 kts 276°
2026-05-07 10:06 51.10470 -35.68927 36212 ft 455 kts 276°
2026-05-07 10:07 51.10407 -35.79007 36211 ft 455 kts 276°
2026-05-07 10:07 51.10335 -35.89015 36214 ft 455 kts 276°
2026-05-07 10:08 51.10254 -35.99059 36210 ft 454 kts 276°
2026-05-07 10:08 51.10170 -36.08951 36215 ft 454 kts 275°
2026-05-07 10:09 51.10074 -36.18983 36210 ft 454 kts 275°
2026-05-07 10:09 51.09971 -36.29001 36211 ft 453 kts 275°
2026-05-07 10:10 51.09851 -36.39024 36214 ft 453 kts 275°
2026-05-07 10:10 51.09725 -36.49062 36209 ft 454 kts 275°
2026-05-07 10:11 51.09594 -36.59102 36213 ft 454 kts 275°
2026-05-07 10:11 51.09455 -36.69148 36212 ft 454 kts 275°
2026-05-07 10:12 51.09306 -36.79205 36213 ft 455 kts 275°
2026-05-07 10:12 51.09147 -36.89268 36211 ft 454 kts 275°
2026-05-07 10:13 51.08980 -36.99314 36212 ft 455 kts 275°
2026-05-07 10:13 51.08807 -37.09202 36225 ft 453 kts 275°
2026-05-07 10:14 51.08623 -37.19235 36224 ft 454 kts 275°
2026-05-07 10:14 51.08430 -37.29285 36232 ft 455 kts 275°
2026-05-07 10:15 51.08230 -37.39338 36232 ft 455 kts 275°
2026-05-07 10:15 51.08022 -37.49407 36231 ft 456 kts 275°
2026-05-07 10:16 51.07799 -37.59467 36231 ft 455 kts 274°
2026-05-07 10:16 51.07575 -37.69453 36230 ft 454 kts 274°
2026-05-07 10:17 51.07342 -37.79519 36232 ft 456 kts 274°
2026-05-07 10:17 51.07099 -37.89589 36229 ft 456 kts 274°
2026-05-07 10:18 51.06842 -37.99680 36222 ft 457 kts 274°
2026-05-07 10:18 51.06586 -38.09602 36222 ft 455 kts 274°
2026-05-07 10:19 51.06315 -38.19654 36221 ft 454 kts 274°
2026-05-07 10:19 51.06037 -38.29687 36232 ft 454 kts 274°
2026-05-07 10:20 51.05749 -38.39692 36233 ft 453 kts 274°
2026-05-07 10:20 51.05454 -38.49710 36230 ft 453 kts 274°
2026-05-07 10:21 51.05152 -38.59700 36225 ft 452 kts 273°
2026-05-07 10:21 51.04845 -38.69678 36231 ft 453 kts 273°
2026-05-07 10:22 51.04523 -38.79689 36231 ft 453 kts 273°
2026-05-07 10:22 51.04193 -38.89703 36234 ft 454 kts 273°
2026-05-07 10:23 51.03856 -38.99723 36231 ft 455 kts 273°
2026-05-07 10:23 51.03514 -39.09636 36467 ft 457 kts 272°
2026-05-07 10:23 51.03334 -39.14671 36704 ft 456 kts 272°
2026-05-07 10:24 51.03152 -39.19675 37022 ft 453 kts 272°
2026-05-07 10:24 51.02971 -39.24653 37351 ft 450 kts 272°
2026-05-07 10:24 51.02790 -39.29612 37641 ft 447 kts 272°
2026-05-07 10:24 51.02609 -39.34530 37879 ft 446 kts 272°
2026-05-07 10:25 51.02426 -39.39441 38112 ft 445 kts 272°
2026-05-07 10:25 51.02057 -39.49281 38212 ft 447 kts 272°
2026-05-07 10:26 51.01678 -39.59098 38218 ft 443 kts 272°
2026-05-07 10:26 51.01288 -39.68825 38220 ft 440 kts 272°
2026-05-07 10:27 51.00901 -39.78429 38228 ft 438 kts 272°
2026-05-07 10:27 51.00502 -39.88066 38236 ft 437 kts 272°
2026-05-07 10:28 51.00100 -39.97706 38235 ft 438 kts 272°
2026-05-07 10:28 50.99888 -40.07202 38229 ft 437 kts 275°
2026-05-07 10:29 50.99830 -40.16861 38231 ft 438 kts 275°
2026-05-07 10:29 50.99770 -40.26547 38233 ft 439 kts 275°
2026-05-07 10:30 50.99643 -40.41107 38234 ft 441 kts 274°
2026-05-07 10:30 50.99537 -40.50845 38236 ft 441 kts 274°
2026-05-07 10:31 50.99424 -40.60608 38227 ft 443 kts 274°
2026-05-07 10:31 50.99301 -40.70384 38232 ft 442 kts 274°
2026-05-07 10:32 50.99165 -40.80112 38228 ft 440 kts 274°
2026-05-07 10:32 50.99025 -40.89822 38224 ft 440 kts 274°
2026-05-07 10:33 50.98882 -40.99529 38228 ft 440 kts 274°
2026-05-07 10:33 50.98730 -41.09096 38227 ft 441 kts 274°
2026-05-07 10:34 50.98569 -41.18816 38227 ft 440 kts 274°
2026-05-07 10:34 50.98400 -41.28537 38235 ft 440 kts 274°
2026-05-07 10:35 50.98221 -41.38196 38235 ft 441 kts 274°
2026-05-07 10:35 50.98036 -41.47919 38234 ft 441 kts 274°
2026-05-07 10:36 50.97842 -41.57640 38224 ft 440 kts 274°
2026-05-07 10:36 50.97635 -41.67353 38231 ft 440 kts 273°
2026-05-07 10:37 50.97426 -41.77090 38238 ft 442 kts 273°
2026-05-07 10:37 50.97208 -41.86838 38230 ft 442 kts 273°
2026-05-07 10:38 50.96983 -41.96596 38234 ft 443 kts 273°
2026-05-07 10:38 50.96751 -42.06197 38229 ft 443 kts 273°
2026-05-07 10:39 50.96508 -42.15967 38235 ft 443 kts 273°
2026-05-07 10:39 50.96257 -42.25737 38232 ft 443 kts 273°
2026-05-07 10:40 50.95995 -42.35513 38227 ft 444 kts 272°
2026-05-07 10:40 50.95728 -42.45229 38236 ft 444 kts 272°
2026-05-07 10:41 50.95450 -42.55069 38237 ft 444 kts 272°
2026-05-07 10:41 50.95166 -42.64774 38229 ft 444 kts 272°
2026-05-07 10:42 50.94875 -42.74568 38236 ft 445 kts 272°
2026-05-07 10:42 50.94571 -42.84348 38233 ft 443 kts 272°
2026-05-07 10:43 50.94262 -42.94115 38230 ft 443 kts 272°
2026-05-07 10:43 50.93951 -43.03729 38223 ft 444 kts 272°
2026-05-07 10:44 50.93624 -43.13495 38234 ft 444 kts 272°
2026-05-07 10:44 50.93288 -43.23277 38224 ft 444 kts 272°
2026-05-07 10:45 50.92945 -43.33067 38234 ft 445 kts 271°
2026-05-07 10:45 50.92595 -43.42878 38236 ft 446 kts 271°
2026-05-07 10:46 50.92235 -43.52682 38227 ft 446 kts 271°
2026-05-07 10:46 50.91864 -43.62510 38238 ft 447 kts 271°
2026-05-07 10:47 50.91486 -43.72342 38225 ft 447 kts 271°
2026-05-07 10:47 50.91100 -43.82155 38227 ft 447 kts 271°
2026-05-07 10:48 50.90709 -43.91989 38237 ft 447 kts 271°
2026-05-07 10:48 50.90313 -44.01674 38234 ft 447 kts 271°
2026-05-07 10:49 50.89901 -44.11511 38232 ft 447 kts 270°
2026-05-07 10:49 50.89481 -44.21340 38232 ft 447 kts 270°
2026-05-07 10:50 50.89055 -44.31119 38236 ft 449 kts 270°
2026-05-07 10:50 50.88619 -44.40988 38231 ft 449 kts 270°
2026-05-07 10:51 50.88173 -44.50854 38234 ft 449 kts 270°
2026-05-07 10:51 50.87793 -44.59048 38225 ft 449 kts 270°
2026-05-07 10:52 50.87331 -44.68911 38230 ft 449 kts 270°
2026-05-07 10:52 50.86865 -44.78770 38226 ft 449 kts 270°
2026-05-07 10:53 50.86393 -44.88629 38224 ft 449 kts 269°
2026-05-07 10:53 50.85904 -44.98484 38234 ft 449 kts 269°
2026-05-07 10:54 50.85418 -45.08169 38231 ft 449 kts 269°
2026-05-07 10:54 50.84915 -45.18028 38225 ft 449 kts 269°
2026-05-07 10:55 50.84406 -45.27886 38235 ft 449 kts 269°
2026-05-07 10:55 50.83888 -45.37746 38227 ft 450 kts 269°
2026-05-07 10:56 50.83359 -45.47599 38233 ft 450 kts 269°
2026-05-07 10:56 50.82820 -45.57472 38158 ft 452 kts 269°
2026-05-07 10:57 50.82275 -45.67380 38137 ft 452 kts 269°
2026-05-07 10:57 50.81722 -45.77295 38127 ft 453 kts 268°
2026-05-07 10:58 50.81155 -45.87209 38130 ft 453 kts 268°
2026-05-07 10:58 50.80582 -45.97118 38129 ft 452 kts 268°
2026-05-07 10:59 50.80003 -46.06868 38128 ft 452 kts 268°
2026-05-07 10:59 50.79415 -46.16766 38131 ft 452 kts 268°
2026-05-07 11:00 50.78825 -46.26598 38129 ft 452 kts 268°
2026-05-07 11:00 50.78218 -46.36535 38129 ft 451 kts 268°
2026-05-07 11:01 50.77605 -46.46406 38130 ft 451 kts 267°
2026-05-07 11:01 50.76985 -46.56214 38130 ft 452 kts 267°
2026-05-07 11:02 50.76357 -46.66081 38124 ft 451 kts 267°
2026-05-07 11:02 50.75715 -46.76003 38120 ft 451 kts 267°
2026-05-07 11:03 50.75066 -46.85850 38121 ft 451 kts 267°
2026-05-07 11:03 50.74420 -46.95639 38121 ft 451 kts 266°
2026-05-07 11:04 50.73767 -47.05333 38119 ft 451 kts 266°
2026-05-07 11:04 50.73093 -47.15233 38124 ft 450 kts 266°
2026-05-07 11:05 50.72420 -47.24976 38117 ft 450 kts 266°
2026-05-07 11:05 50.71734 -47.34799 38120 ft 449 kts 266°
2026-05-07 11:06 50.71041 -47.44574 38119 ft 449 kts 266°
2026-05-07 11:06 50.70340 -47.54364 38121 ft 449 kts 266°
2026-05-07 11:07 50.69632 -47.64164 38120 ft 450 kts 266°
2026-05-07 11:07 50.68912 -47.73961 38119 ft 451 kts 266°
2026-05-07 11:08 50.68186 -47.83782 38121 ft 451 kts 265°
2026-05-07 11:08 50.67448 -47.93628 38122 ft 453 kts 265°
2026-05-07 11:09 50.66713 -48.03320 38124 ft 453 kts 265°
2026-05-07 11:09 50.65958 -48.13169 38117 ft 452 kts 265°
2026-05-07 11:10 50.65199 -48.22937 38119 ft 452 kts 265°
2026-05-07 11:10 50.64426 -48.32758 38121 ft 451 kts 265°
2026-05-07 11:11 50.63654 -48.42544 38115 ft 450 kts 265°
2026-05-07 11:11 50.62868 -48.52328 38121 ft 450 kts 264°
2026-05-07 11:12 50.62081 -48.62086 38119 ft 448 kts 264°
2026-05-07 11:12 50.61283 -48.71803 38120 ft 447 kts 264°
2026-05-07 11:13 50.60478 -48.81504 38120 ft 446 kts 264°
2026-05-07 11:13 50.59668 -48.91177 38119 ft 445 kts 264°
2026-05-07 11:14 50.58865 -49.00686 38121 ft 445 kts 264°
2026-05-07 11:14 50.58042 -49.10334 38120 ft 445 kts 264°
2026-05-07 11:15 50.57212 -49.19977 38118 ft 445 kts 264°
2026-05-07 11:15 50.56373 -49.29603 38119 ft 444 kts 264°
2026-05-07 11:16 50.55527 -49.39238 38120 ft 445 kts 263°
2026-05-07 11:16 50.54674 -49.48867 38120 ft 444 kts 263°
2026-05-07 11:17 50.53815 -49.58490 38118 ft 445 kts 263°
2026-05-07 11:17 50.52940 -49.68119 38122 ft 445 kts 263°
2026-05-07 11:18 50.52061 -49.77753 38121 ft 445 kts 263°
2026-05-07 11:18 50.51182 -49.87304 38119 ft 445 kts 263°
2026-05-07 11:19 50.50267 -49.96937 38120 ft 446 kts 261°
2026-05-07 11:19 50.48603 -50.06178 38120 ft 448 kts 251°
2026-05-07 11:20 50.46369 -50.15311 38121 ft 449 kts 250°
2026-05-07 11:20 50.44132 -50.24439 38118 ft 448 kts 251°
2026-05-07 11:21 50.41908 -50.33569 38122 ft 448 kts 251°
2026-05-07 11:21 50.39691 -50.42694 38120 ft 448 kts 250°
2026-05-07 11:22 50.37468 -50.51801 38121 ft 447 kts 250°
2026-05-07 11:22 50.35243 -50.60885 38120 ft 446 kts 250°
2026-05-07 11:23 50.33018 -50.69929 38120 ft 445 kts 250°
2026-05-07 11:23 50.30790 -50.78949 38121 ft 444 kts 250°
2026-05-07 11:24 50.28573 -50.87877 38120 ft 443 kts 250°
2026-05-07 11:24 50.26326 -50.96896 38120 ft 442 kts 250°
2026-05-07 11:25 50.24145 -51.05616 38120 ft 440 kts 250°
2026-05-07 11:25 50.21912 -51.14518 38122 ft 440 kts 250°
2026-05-07 11:26 50.19676 -51.23390 38120 ft 438 kts 249°
2026-05-07 11:26 50.17441 -51.32220 38117 ft 437 kts 249°
2026-05-07 11:27 50.15202 -51.41033 38121 ft 437 kts 249°
2026-05-07 11:27 50.12961 -51.49823 38120 ft 437 kts 249°
2026-05-07 11:28 50.10710 -51.58615 38121 ft 437 kts 249°
2026-05-07 11:28 50.08452 -51.67389 38123 ft 437 kts 249°
2026-05-07 11:29 50.06187 -51.76169 38120 ft 437 kts 249°
2026-05-07 11:29 50.03918 -51.84944 38121 ft 437 kts 249°
2026-05-07 11:30 50.01644 -51.93708 38121 ft 437 kts 249°
2026-05-07 11:30 49.99637 -52.02443 38122 ft 436 kts 256°
2026-05-07 11:31 49.98390 -52.11655 38124 ft 436 kts 259°
2026-05-07 11:31 49.97190 -52.20852 38121 ft 438 kts 258°
2026-05-07 11:32 49.95332 -52.34743 38122 ft 438 kts 258°
2026-05-07 11:33 49.94075 -52.44001 38120 ft 438 kts 258°
2026-05-07 11:33 49.92809 -52.53236 38110 ft 438 kts 258°
2026-05-07 11:34 49.91534 -52.62479 38080 ft 437 kts 258°
2026-05-07 11:34 49.90257 -52.71689 38074 ft 436 kts 257°
2026-05-07 11:35 49.88975 -52.80868 38110 ft 434 kts 257°
2026-05-07 11:35 49.87691 -52.90002 38120 ft 433 kts 257°
2026-05-07 11:36 49.86408 -52.99093 38119 ft 431 kts 257°
2026-05-07 11:36 49.85138 -53.08027 38114 ft 430 kts 257°
2026-05-07 11:37 49.83845 -53.17062 38109 ft 428 kts 257°
2026-05-07 11:37 49.82551 -53.26065 38111 ft 429 kts 256°
2026-05-07 11:38 49.81245 -53.35065 38112 ft 427 kts 256°
2026-05-07 11:38 49.79939 -53.44032 38114 ft 426 kts 256°
2026-05-07 11:39 49.78626 -53.52970 38112 ft 425 kts 256°
2026-05-07 11:39 49.77540 -53.60369 38114 ft 424 kts 256°
2026-05-07 11:40 49.76231 -53.69231 38105 ft 422 kts 255°
2026-05-07 11:40 49.74916 -53.78064 38110 ft 421 kts 255°
2026-05-07 11:41 49.73598 -53.86872 38110 ft 420 kts 255°
2026-05-07 11:41 49.72275 -53.95669 38112 ft 420 kts 255°
2026-05-07 11:42 49.70968 -54.04304 38111 ft 420 kts 255°
2026-05-07 11:42 49.69631 -54.13091 38110 ft 420 kts 255°
2026-05-07 11:43 49.68288 -54.21872 38114 ft 420 kts 255°
2026-05-07 11:43 49.66944 -54.30591 38113 ft 420 kts 255°
2026-05-07 11:44 49.65586 -54.39372 38110 ft 421 kts 255°
2026-05-07 11:44 49.64217 -54.48176 38111 ft 422 kts 255°
2026-05-07 11:45 49.62840 -54.56980 38110 ft 422 kts 254°
2026-05-07 11:45 49.61457 -54.65769 38102 ft 422 kts 254°
2026-05-07 11:46 49.60070 -54.74550 38094 ft 421 kts 254°
2026-05-07 11:46 49.58680 -54.83315 38089 ft 421 kts 254°
2026-05-07 11:47 49.57283 -54.92075 38090 ft 421 kts 254°
2026-05-07 11:47 49.55899 -55.00685 38089 ft 420 kts 253°
2026-05-07 11:48 49.54488 -55.09402 38086 ft 420 kts 253°
2026-05-07 11:48 49.53075 -55.18125 38090 ft 419 kts 253°
2026-05-07 11:49 49.51656 -55.26823 38082 ft 418 kts 253°
2026-05-07 11:49 49.50240 -55.35466 38071 ft 416 kts 253°
2026-05-07 11:50 49.48822 -55.44102 38075 ft 416 kts 253°
2026-05-07 11:50 49.47389 -55.52717 38069 ft 415 kts 253°
2026-05-07 11:51 49.45957 -55.61310 38065 ft 415 kts 252°
2026-05-07 11:51 49.44531 -55.69827 38059 ft 414 kts 252°
2026-05-07 11:52 49.43094 -55.78386 38055 ft 413 kts 252°
2026-05-07 11:52 49.41652 -55.86918 38049 ft 413 kts 252°
2026-05-07 11:53 49.40199 -55.95454 38038 ft 413 kts 252°
2026-05-07 11:53 49.38770 -56.03839 38028 ft 413 kts 252°
2026-05-07 11:54 49.37310 -56.12356 38022 ft 413 kts 252°
2026-05-07 11:54 49.35843 -56.20867 38020 ft 412 kts 251°
2026-05-07 11:55 49.34372 -56.29365 38009 ft 413 kts 251°
2026-05-07 11:55 49.32891 -56.37871 38012 ft 413 kts 251°
2026-05-07 11:56 49.31413 -56.46319 37999 ft 413 kts 251°
2026-05-07 11:56 49.29926 -56.54820 37997 ft 413 kts 251°
2026-05-07 11:57 49.28425 -56.63304 37994 ft 413 kts 251°
2026-05-07 11:57 49.26915 -56.71813 37988 ft 414 kts 251°
2026-05-07 11:58 49.25400 -56.80323 37994 ft 415 kts 251°
2026-05-07 11:58 49.23873 -56.88859 37990 ft 416 kts 251°
2026-05-07 11:59 49.22332 -56.97413 37981 ft 417 kts 251°
2026-05-07 11:59 49.20810 -57.05842 37983 ft 418 kts 250°
2026-05-07 12:00 49.19254 -57.14406 37982 ft 418 kts 250°
2026-05-07 12:00 49.17695 -57.22951 37982 ft 418 kts 250°
2026-05-07 12:01 49.16125 -57.31498 37983 ft 417 kts 250°
2026-05-07 12:01 49.14553 -57.40034 37980 ft 417 kts 250°
2026-05-07 12:02 49.12980 -57.48552 37987 ft 417 kts 250°
2026-05-07 12:02 49.11398 -57.57052 37984 ft 416 kts 250°
2026-05-07 12:03 49.09814 -57.65546 37962 ft 417 kts 249°
2026-05-07 12:03 49.08226 -57.74017 37980 ft 419 kts 248°
2026-05-07 12:04 49.06609 -57.82567 37992 ft 421 kts 248°
2026-05-07 12:04 49.04984 -57.91165 37988 ft 423 kts 248°
2026-05-07 12:05 49.03346 -57.99819 37982 ft 425 kts 248°
2026-05-07 12:05 49.01715 -58.08346 37981 ft 427 kts 248°
2026-05-07 12:06 49.00049 -58.17028 37972 ft 427 kts 248°
2026-05-07 12:06 48.98383 -58.25670 37979 ft 427 kts 248°
2026-05-07 12:07 48.96706 -58.34340 37967 ft 427 kts 248°
2026-05-07 12:07 48.95017 -58.43007 37979 ft 428 kts 248°
2026-05-07 12:08 48.93321 -58.51686 37977 ft 428 kts 248°
2026-05-07 12:08 48.91621 -58.60353 37956 ft 427 kts 248°
2026-05-07 12:09 48.89916 -58.69000 37959 ft 427 kts 248°
2026-05-07 12:09 48.88202 -58.77646 37964 ft 427 kts 248°
2026-05-07 12:10 48.86483 -58.86276 37953 ft 427 kts 248°
2026-05-07 12:10 48.84758 -58.94907 37954 ft 427 kts 248°
2026-05-07 12:11 48.83057 -59.03402 37950 ft 427 kts 248°
2026-05-07 12:11 48.81320 -59.12021 37947 ft 428 kts 248°
2026-05-07 12:12 48.79583 -59.20601 37938 ft 428 kts 248°
2026-05-07 12:12 48.77827 -59.29236 37937 ft 429 kts 248°
2026-05-07 12:13 48.76058 -59.37891 37931 ft 430 kts 248°
2026-05-07 12:13 48.74283 -59.46556 37924 ft 431 kts 248°
2026-05-07 12:14 48.72492 -59.55223 37919 ft 431 kts 248°
2026-05-07 12:14 48.70703 -59.63885 37867 ft 431 kts 248°
2026-05-07 12:15 48.68908 -59.72536 37859 ft 431 kts 248°
2026-05-07 12:15 48.67103 -59.81182 37856 ft 431 kts 248°
2026-05-07 12:16 48.65291 -59.89828 37851 ft 431 kts 248°
2026-05-07 12:16 48.63474 -59.98453 37843 ft 431 kts 248°
2026-05-07 12:17 48.61683 -60.06931 37839 ft 430 kts 248°
2026-05-07 12:17 48.59856 -60.15542 37823 ft 430 kts 248°
2026-05-07 12:18 48.58023 -60.24137 37807 ft 431 kts 248°
2026-05-07 12:18 48.56180 -60.32744 37804 ft 431 kts 248°
2026-05-07 12:19 48.54325 -60.41353 37797 ft 431 kts 248°
2026-05-07 12:19 48.52467 -60.49965 37796 ft 432 kts 248°
2026-05-07 12:20 48.50602 -60.58572 37790 ft 432 kts 248°
2026-05-07 12:20 48.48743 -60.67116 37786 ft 432 kts 248°
2026-05-07 12:21 48.46866 -60.75705 37783 ft 432 kts 248°
2026-05-07 12:21 48.44983 -60.84286 37777 ft 432 kts 247°
2026-05-07 12:22 48.43093 -60.92859 37778 ft 431 kts 247°
2026-05-07 12:22 48.41228 -61.01292 37783 ft 431 kts 247°
2026-05-07 12:23 48.39326 -61.09836 37769 ft 431 kts 247°
2026-05-07 12:23 48.37421 -61.18370 37768 ft 430 kts 247°
2026-05-07 12:24 48.35513 -61.26886 37769 ft 429 kts 247°
2026-05-07 12:24 48.33604 -61.35380 37765 ft 428 kts 247°
2026-05-07 12:25 48.31692 -61.43850 37757 ft 428 kts 247°
2026-05-07 12:25 48.29779 -61.52296 37757 ft 427 kts 247°
2026-05-07 12:26 48.27857 -61.60730 37760 ft 427 kts 247°
2026-05-07 12:26 48.25928 -61.69158 37749 ft 428 kts 247°
2026-05-07 12:27 48.24005 -61.77542 37747 ft 427 kts 247°
2026-05-07 12:27 48.22070 -61.85955 37730 ft 427 kts 247°
2026-05-07 12:28 48.20120 -61.94391 37707 ft 428 kts 247°
2026-05-07 12:28 48.18195 -62.02680 37700 ft 427 kts 246°
2026-05-07 12:29 48.16236 -62.11083 37702 ft 427 kts 246°
2026-05-07 12:29 48.14592 -62.18111 37703 ft 426 kts 246°
2026-05-07 12:30 48.12639 -62.26435 37707 ft 426 kts 246°
2026-05-07 12:30 48.10655 -62.34852 37698 ft 426 kts 246°
2026-05-07 12:31 48.08690 -62.43165 37693 ft 427 kts 246°
2026-05-07 12:31 48.06704 -62.51531 37694 ft 427 kts 246°
2026-05-07 12:32 48.04713 -62.59885 37694 ft 427 kts 246°
2026-05-07 12:32 48.02718 -62.68218 37697 ft 426 kts 246°
2026-05-07 12:33 47.99717 -62.80692 37687 ft 427 kts 246°
2026-05-07 12:33 47.97701 -62.89038 37691 ft 427 kts 247°
2026-05-07 12:34 47.95684 -62.97369 37684 ft 426 kts 246°
2026-05-07 12:34 47.93700 -63.05542 37682 ft 425 kts 246°
2026-05-07 12:35 47.91678 -63.13823 37671 ft 425 kts 246°
2026-05-07 12:35 47.89650 -63.22087 37667 ft 424 kts 246°
2026-05-07 12:36 47.87623 -63.30325 37667 ft 423 kts 246°
2026-05-07 12:36 47.85588 -63.38554 37653 ft 423 kts 246°
2026-05-07 12:37 47.83549 -63.46776 37641 ft 424 kts 246°
2026-05-07 12:37 47.81506 -63.54991 37635 ft 423 kts 246°
2026-05-07 12:38 47.79455 -63.63200 37639 ft 424 kts 246°
2026-05-07 12:38 47.77394 -63.71417 37629 ft 425 kts 246°
2026-05-07 12:39 47.75322 -63.79645 37629 ft 425 kts 246°
2026-05-07 12:39 47.73244 -63.87887 37628 ft 426 kts 246°
2026-05-07 12:40 47.71158 -63.96129 37629 ft 427 kts 246°
2026-05-07 12:40 47.69096 -64.04240 37629 ft 427 kts 246°
2026-05-07 12:41 47.66994 -64.12484 37624 ft 427 kts 246°
2026-05-07 12:41 47.64900 -64.20666 37629 ft 427 kts 246°
2026-05-07 12:42 47.62784 -64.28888 37631 ft 427 kts 246°
2026-05-07 12:42 47.60667 -64.37094 37632 ft 426 kts 246°
2026-05-07 12:43 47.58545 -64.45293 37636 ft 426 kts 246°
2026-05-07 12:43 47.56415 -64.53478 37643 ft 425 kts 246°
2026-05-07 12:44 47.54286 -64.61644 37653 ft 425 kts 246°
2026-05-07 12:44 47.52149 -64.69813 37642 ft 426 kts 246°
2026-05-07 12:45 47.50011 -64.77962 37649 ft 425 kts 246°
2026-05-07 12:45 47.47869 -64.86101 37645 ft 424 kts 246°
2026-05-07 12:46 47.45723 -64.94207 37646 ft 423 kts 246°
2026-05-07 12:46 47.43608 -65.02182 37645 ft 423 kts 246°
2026-05-07 12:47 47.41455 -65.10269 37652 ft 424 kts 246°
2026-05-07 12:47 47.39295 -65.18356 37657 ft 423 kts 246°
2026-05-07 12:48 47.37133 -65.26432 37663 ft 423 kts 246°
2026-05-07 12:48 47.34964 -65.34492 37670 ft 423 kts 246°
2026-05-07 12:49 47.32785 -65.42558 37660 ft 424 kts 246°
2026-05-07 12:49 47.30601 -65.50617 37668 ft 424 kts 246°
2026-05-07 12:50 47.28410 -65.58686 37665 ft 424 kts 246°
2026-05-07 12:50 47.26228 -65.66694 37665 ft 425 kts 246°
2026-05-07 12:51 47.24019 -65.74763 37667 ft 425 kts 246°
2026-05-07 12:51 47.21808 -65.82814 37670 ft 425 kts 246°
2026-05-07 12:52 47.19590 -65.90874 37675 ft 425 kts 246°
2026-05-07 12:52 47.17365 -65.98918 37675 ft 424 kts 246°
2026-05-07 12:53 47.15175 -66.06803 37674 ft 423 kts 246°
2026-05-07 12:53 47.12948 -66.14808 37674 ft 423 kts 246°
2026-05-07 12:54 47.10720 -66.22793 37685 ft 422 kts 246°
2026-05-07 12:54 47.08487 -66.30767 37687 ft 423 kts 246°
2026-05-07 12:55 47.06246 -66.38746 37685 ft 423 kts 246°
2026-05-07 12:55 47.03999 -66.46710 37692 ft 423 kts 246°
2026-05-07 12:56 47.01748 -66.54667 37693 ft 423 kts 246°
2026-05-07 12:56 46.99497 -66.62598 37700 ft 422 kts 246°
2026-05-07 12:57 46.97239 -66.70530 37703 ft 422 kts 246°
2026-05-07 12:57 46.94996 -66.78384 37703 ft 421 kts 246°
2026-05-07 12:58 46.92730 -66.86286 37702 ft 420 kts 246°
2026-05-07 12:58 46.90468 -66.94167 37704 ft 420 kts 246°
2026-05-07 12:59 46.88217 -67.01910 37712 ft 419 kts 244°
2026-05-07 12:59 46.85352 -67.09304 37730 ft 419 kts 236°
2026-05-07 13:00 46.82048 -67.16311 37729 ft 419 kts 235°
2026-05-07 13:00 46.78742 -67.23321 37729 ft 419 kts 236°
2026-05-07 13:01 46.75437 -67.30339 37730 ft 419 kts 236°
2026-05-07 13:01 46.72137 -67.37343 37730 ft 420 kts 236°
2026-05-07 13:02 46.68835 -67.44349 37724 ft 419 kts 236°
2026-05-07 13:02 46.65532 -67.51335 37735 ft 419 kts 236°
2026-05-07 13:03 46.62225 -67.58301 37745 ft 418 kts 236°
2026-05-07 13:03 46.58918 -67.65257 37735 ft 418 kts 235°
2026-05-07 13:04 46.55614 -67.72190 37744 ft 417 kts 236°
2026-05-07 13:04 46.52312 -67.79098 37740 ft 416 kts 236°
2026-05-07 13:05 46.49018 -67.85980 37744 ft 415 kts 236°
2026-05-07 13:05 46.45724 -67.92843 37744 ft 413 kts 236°
2026-05-07 13:06 46.42438 -67.99667 37748 ft 413 kts 236°
2026-05-07 13:06 46.39202 -68.06374 37741 ft 412 kts 236°
2026-05-07 13:07 46.35934 -68.13133 37738 ft 412 kts 236°
2026-05-07 13:07 46.32641 -68.19919 37740 ft 412 kts 235°
2026-05-07 13:08 46.29338 -68.26711 37740 ft 413 kts 235°
2026-05-07 13:08 46.26033 -68.33497 37739 ft 413 kts 235°
2026-05-07 13:09 46.22721 -68.40281 37749 ft 413 kts 235°
2026-05-07 13:09 46.19403 -68.47063 37751 ft 413 kts 235°
2026-05-07 13:10 46.16076 -68.53843 37751 ft 414 kts 235°
2026-05-07 13:10 46.12743 -68.60617 37755 ft 415 kts 235°
2026-05-07 13:11 46.09403 -68.67394 37764 ft 416 kts 235°
2026-05-07 13:11 46.06049 -68.74181 37776 ft 416 kts 235°
2026-05-07 13:12 46.02692 -68.80955 37771 ft 416 kts 235°
2026-05-07 13:12 45.99330 -68.87724 37777 ft 417 kts 235°
2026-05-07 13:13 45.95959 -68.94495 37785 ft 415 kts 236°
2026-05-07 13:13 45.92663 -69.01101 37775 ft 412 kts 236°
2026-05-07 13:14 45.89330 -69.07766 37768 ft 410 kts 235°
2026-05-07 13:14 45.86017 -69.14367 37760 ft 406 kts 235°
2026-05-07 13:15 45.82721 -69.20924 37769 ft 404 kts 235°
2026-05-07 13:15 45.79984 -69.26359 37769 ft 405 kts 235°
2026-05-07 13:16 45.76688 -69.32889 37769 ft 405 kts 235°
2026-05-07 13:16 45.73376 -69.39437 37759 ft 407 kts 235°
2026-05-07 13:17 45.70039 -69.46019 37762 ft 410 kts 235°
2026-05-07 13:17 45.66682 -69.52625 37760 ft 412 kts 235°
2026-05-07 13:18 45.63294 -69.59257 37753 ft 413 kts 235°
2026-05-07 13:18 45.59906 -69.65898 37753 ft 414 kts 235°
2026-05-07 13:19 45.56536 -69.72489 37748 ft 414 kts 235°
2026-05-07 13:19 45.53117 -69.79158 37748 ft 413 kts 235°
2026-05-07 13:20 45.49718 -69.85767 37757 ft 413 kts 234°
2026-05-07 13:20 45.46344 -69.92317 37759 ft 412 kts 234°
2026-05-07 13:21 45.42949 -69.98884 37757 ft 412 kts 234°
2026-05-07 13:21 45.39607 -70.05336 37765 ft 411 kts 234°
2026-05-07 13:22 45.36216 -70.11872 37769 ft 410 kts 234°
2026-05-07 13:22 45.32822 -70.18396 37775 ft 410 kts 235°
2026-05-07 13:23 45.29429 -70.24908 37777 ft 409 kts 234°
2026-05-07 13:23 45.26042 -70.31391 37790 ft 409 kts 234°
2026-05-07 13:24 45.22652 -70.37862 37788 ft 408 kts 235°
2026-05-07 13:24 45.19269 -70.44309 37795 ft 406 kts 235°
2026-05-07 13:25 45.15894 -70.50724 37796 ft 405 kts 235°
2026-05-07 13:25 45.12527 -70.57107 37800 ft 404 kts 235°
2026-05-07 13:26 45.09172 -70.63457 37802 ft 402 kts 235°
2026-05-07 13:26 45.05819 -70.69785 37798 ft 401 kts 235°
2026-05-07 13:27 45.02476 -70.76080 37813 ft 400 kts 235°
2026-05-07 13:27 44.99150 -70.82332 37804 ft 402 kts 235°
2026-05-07 13:28 44.95791 -70.88640 37808 ft 402 kts 235°
2026-05-07 13:28 44.92424 -70.94937 37801 ft 403 kts 235°
2026-05-07 13:29 44.89103 -71.01145 37809 ft 402 kts 235°
2026-05-07 13:29 44.85728 -71.07436 37808 ft 402 kts 235°
2026-05-07 13:30 44.82186 -71.13537 37814 ft 403 kts 231°
2026-05-07 13:30 44.78473 -71.19430 37812 ft 402 kts 231°
2026-05-07 13:31 44.74752 -71.25312 37822 ft 402 kts 231°
2026-05-07 13:31 44.71033 -71.31196 37829 ft 403 kts 231°
2026-05-07 13:32 44.67314 -71.37080 37821 ft 402 kts 231°
2026-05-07 13:32 44.63602 -71.42943 37830 ft 401 kts 231°
2026-05-07 13:33 44.59898 -71.48786 37832 ft 399 kts 231°
2026-05-07 13:33 44.56235 -71.54554 37835 ft 398 kts 231°
2026-05-07 13:34 44.50703 -71.63235 37842 ft 398 kts 231°
2026-05-07 13:35 44.47015 -71.69018 37841 ft 398 kts 231°
2026-05-07 13:35 44.43325 -71.74782 37844 ft 397 kts 231°
2026-05-07 13:36 44.39631 -71.80540 37844 ft 398 kts 231°
2026-05-07 13:36 44.35934 -71.86292 37841 ft 398 kts 231°
2026-05-07 13:37 44.32235 -71.92035 37840 ft 398 kts 231°
2026-05-07 13:37 44.28532 -71.97773 37840 ft 397 kts 231°
2026-05-07 13:38 44.24887 -72.03411 37845 ft 397 kts 231°
2026-05-07 13:38 44.21183 -72.09131 37837 ft 397 kts 231°
2026-05-07 13:39 44.17479 -72.14832 37850 ft 396 kts 231°
2026-05-07 13:39 44.13783 -72.20509 37855 ft 396 kts 231°
2026-05-07 13:40 44.10083 -72.26190 37858 ft 396 kts 231°
2026-05-07 13:40 44.06379 -72.31871 37864 ft 396 kts 231°
2026-05-07 13:41 44.02689 -72.37504 37868 ft 397 kts 231°
2026-05-07 13:41 43.98975 -72.43169 37868 ft 397 kts 231°
2026-05-07 13:42 43.95245 -72.48845 37878 ft 397 kts 231°
2026-05-07 13:42 43.91520 -72.54500 37881 ft 396 kts 231°
2026-05-07 13:43 43.87805 -72.60130 37865 ft 395 kts 231°
2026-05-07 13:43 43.84101 -72.65732 37893 ft 393 kts 232°
2026-05-07 13:44 43.80408 -72.71303 37891 ft 392 kts 232°
2026-05-07 13:44 43.76733 -72.76841 37883 ft 390 kts 232°
2026-05-07 13:45 43.73066 -72.82361 37901 ft 389 kts 232°
2026-05-07 13:45 43.69401 -72.87862 37895 ft 388 kts 232°
2026-05-07 13:46 43.65744 -72.93342 37901 ft 389 kts 232°
2026-05-07 13:46 43.62077 -72.98832 37895 ft 389 kts 232°
2026-05-07 13:47 43.58455 -73.04233 37901 ft 390 kts 232°
2026-05-07 13:47 43.54774 -73.09717 37899 ft 390 kts 232°
2026-05-07 13:48 43.51137 -73.15117 37892 ft 377 kts 232°
2026-05-07 13:48 43.49358 -73.17754 37774 ft 368 kts 232°
2026-05-07 13:48 43.47632 -73.20311 37470 ft 361 kts 232°
2026-05-07 13:48 43.45931 -73.22827 37120 ft 357 kts 232°
2026-05-07 13:49 43.44251 -73.25314 36686 ft 352 kts 232°
2026-05-07 13:49 43.42595 -73.27766 36237 ft 348 kts 232°
2026-05-07 13:49 43.40979 -73.30159 35799 ft 344 kts 232°
2026-05-07 13:49 43.39339 -73.32581 35338 ft 339 kts 232°
2026-05-07 13:50 43.37760 -73.34910 34898 ft 336 kts 233°
2026-05-07 13:50 43.36175 -73.37250 34408 ft 333 kts 233°
2026-05-07 13:50 43.34606 -73.39566 33913 ft 330 kts 233°
2026-05-07 13:50 43.33048 -73.41862 33423 ft 327 kts 233°
2026-05-07 13:51 43.31505 -73.44132 32923 ft 324 kts 233°
2026-05-07 13:51 43.29975 -73.46380 32422 ft 321 kts 233°
2026-05-07 13:51 43.28460 -73.48606 31920 ft 317 kts 233°
2026-05-07 13:51 43.26962 -73.50804 31438 ft 314 kts 233°
2026-05-07 13:52 43.25478 -73.52974 30925 ft 310 kts 233°
2026-05-07 13:52 43.24015 -73.55122 30426 ft 307 kts 233°
2026-05-07 13:52 43.22566 -73.57246 29928 ft 303 kts 233°
2026-05-07 13:52 43.21122 -73.59319 29428 ft 300 kts 229°
2026-05-07 13:53 43.19415 -73.61025 28919 ft 307 kts 221°
2026-05-07 13:53 43.17491 -73.62351 28414 ft 315 kts 213°
2026-05-07 13:53 43.15387 -73.63304 27930 ft 320 kts 210°
2026-05-07 13:53 43.13251 -73.64182 27416 ft 320 kts 210°
2026-05-07 13:54 43.11118 -73.65049 26918 ft 319 kts 210°
2026-05-07 13:54 43.08999 -73.65920 26409 ft 318 kts 209°
2026-05-07 13:54 43.06892 -73.66796 25969 ft 315 kts 209°
2026-05-07 13:54 43.04813 -73.67663 25612 ft 310 kts 210°
2026-05-07 13:55 43.02767 -73.68523 25255 ft 306 kts 210°
2026-05-07 13:55 43.00745 -73.69372 24905 ft 302 kts 210°
2026-05-07 13:55 42.98754 -73.70206 24553 ft 299 kts 210°
2026-05-07 13:55 42.96786 -73.71036 24194 ft 296 kts 210°
2026-05-07 13:56 42.94829 -73.71862 23844 ft 293 kts 209°
2026-05-07 13:56 42.92885 -73.72676 23497 ft 292 kts 209°
2026-05-07 13:56 42.90946 -73.73495 23143 ft 291 kts 209°
2026-05-07 13:56 42.89021 -73.74309 22790 ft 290 kts 209°
2026-05-07 13:57 42.87099 -73.75122 22437 ft 288 kts 209°
2026-05-07 13:57 42.85187 -73.75926 22091 ft 288 kts 208°
2026-05-07 13:57 42.83278 -73.76732 21741 ft 286 kts 208°
2026-05-07 13:57 42.81373 -73.77530 21391 ft 287 kts 208°
2026-05-07 13:58 42.79462 -73.78332 21045 ft 287 kts 208°
2026-05-07 13:58 42.77573 -73.79126 20707 ft 288 kts 207°
2026-05-07 13:58 42.75666 -73.79924 20357 ft 288 kts 207°
2026-05-07 13:58 42.73751 -73.80739 20004 ft 288 kts 208°
2026-05-07 13:59 42.71852 -73.81586 19655 ft 287 kts 208°
2026-05-07 13:59 42.69953 -73.82444 19306 ft 288 kts 207°
2026-05-07 13:59 42.68052 -73.83303 18955 ft 288 kts 207°
2026-05-07 13:59 42.66147 -73.84163 18610 ft 289 kts 207°
2026-05-07 14:00 42.64236 -73.85024 18265 ft 290 kts 207°
2026-05-07 14:00 42.62323 -73.85884 17917 ft 290 kts 206°
2026-05-07 14:00 42.60402 -73.86745 17569 ft 290 kts 206°
2026-05-07 14:00 42.58488 -73.87601 17215 ft 289 kts 206°
2026-05-07 14:01 42.56578 -73.88454 16864 ft 289 kts 206°
2026-05-07 14:01 42.54668 -73.89311 16526 ft 289 kts 206°
2026-05-07 14:01 42.52760 -73.90162 16168 ft 288 kts 206°
2026-05-07 14:01 42.50869 -73.91004 15818 ft 284 kts 206°
2026-05-07 14:02 42.48998 -73.91837 15477 ft 281 kts 206°
2026-05-07 14:02 42.47173 -73.92652 15119 ft 279 kts 206°
2026-05-07 14:02 42.45343 -73.93467 14766 ft 275 kts 206°
2026-05-07 14:02 42.43531 -73.94274 14411 ft 273 kts 206°
2026-05-07 14:03 42.41737 -73.95073 14068 ft 271 kts 206°
2026-05-07 14:03 42.39954 -73.95868 13718 ft 269 kts 206°
2026-05-07 14:03 42.38179 -73.96660 13365 ft 268 kts 206°
2026-05-07 14:03 42.36422 -73.97442 13011 ft 265 kts 206°
2026-05-07 14:04 42.34680 -73.98217 12656 ft 262 kts 206°
2026-05-07 14:04 42.32955 -73.98980 12325 ft 261 kts 206°
2026-05-07 14:04 42.31224 -73.99747 11968 ft 262 kts 206°
2026-05-07 14:04 42.29551 -74.00487 11640 ft 263 kts 207°
2026-05-07 14:05 42.27837 -74.01252 11382 ft 257 kts 206°
2026-05-07 14:05 42.26127 -74.02009 11215 ft 260 kts 206°
2026-05-07 14:05 42.24389 -74.02782 11085 ft 267 kts 206°
2026-05-07 14:05 42.23214 -74.03302 10986 ft 269 kts 206°
2026-05-07 14:06 42.21443 -74.04084 10870 ft 267 kts 206°
2026-05-07 14:06 42.19666 -74.04871 10743 ft 270 kts 205°
2026-05-07 14:06 42.17876 -74.05661 10621 ft 270 kts 205°
2026-05-07 14:06 42.15498 -74.06708 10459 ft 273 kts 204°
2026-05-07 14:07 42.14278 -74.07247 10384 ft 273 kts 205°
2026-05-07 14:07 42.12469 -74.08045 10257 ft 274 kts 205°
2026-05-07 14:07 42.10656 -74.08846 10146 ft 276 kts 204°
2026-05-07 14:07 42.08804 -74.09669 10107 ft 283 kts 204°
2026-05-07 14:08 42.06926 -74.10495 10025 ft 285 kts 204°
2026-05-07 14:08 42.05056 -74.11312 9957 ft 286 kts 203°
2026-05-07 14:08 42.03163 -74.12139 9881 ft 286 kts 204°
2026-05-07 14:08 42.01270 -74.12970 9808 ft 286 kts 203°
2026-05-07 14:09 41.99384 -74.13798 9725 ft 286 kts 203°
2026-05-07 14:09 41.97471 -74.14633 9651 ft 285 kts 203°
2026-05-07 14:09 41.95610 -74.15449 9566 ft 286 kts 203°
2026-05-07 14:09 41.93720 -74.16277 9504 ft 287 kts 203°
2026-05-07 14:10 41.91795 -74.17123 9427 ft 289 kts 203°
2026-05-07 14:10 41.89919 -74.17945 9345 ft 288 kts 203°
2026-05-07 14:10 41.88017 -74.18774 9273 ft 287 kts 202°
2026-05-07 14:10 41.86120 -74.19601 9197 ft 287 kts 202°
2026-05-07 14:11 41.84212 -74.20435 9121 ft 290 kts 202°
2026-05-07 14:11 41.82294 -74.21271 9048 ft 290 kts 202°
2026-05-07 14:11 41.80377 -74.22107 8975 ft 290 kts 202°
2026-05-07 14:11 41.78456 -74.22944 8898 ft 290 kts 202°
2026-05-07 14:12 41.76539 -74.23781 8808 ft 290 kts 202°
2026-05-07 14:12 41.74607 -74.24615 8752 ft 291 kts 202°
2026-05-07 14:12 41.72677 -74.25455 8679 ft 292 kts 202°
2026-05-07 14:12 41.70753 -74.26297 8598 ft 291 kts 202°
2026-05-07 14:13 41.68825 -74.27138 8521 ft 291 kts 202°
2026-05-07 14:13 41.66903 -74.27973 8443 ft 290 kts 202°
2026-05-07 14:13 41.64993 -74.28800 8370 ft 289 kts 202°
2026-05-07 14:13 41.63078 -74.29631 8295 ft 289 kts 202°
2026-05-07 14:14 41.61167 -74.30456 8221 ft 288 kts 202°
2026-05-07 14:14 41.59259 -74.31284 8148 ft 288 kts 202°
2026-05-07 14:14 41.57351 -74.32116 8078 ft 289 kts 202°
2026-05-07 14:14 41.55438 -74.32942 8002 ft 290 kts 202°
2026-05-07 14:15 41.53516 -74.33769 7933 ft 290 kts 202°
2026-05-07 14:15 41.51600 -74.34595 7861 ft 289 kts 202°
2026-05-07 14:15 41.49689 -74.35424 7772 ft 290 kts 202°
2026-05-07 14:15 41.47768 -74.36251 7700 ft 290 kts 202°
2026-05-07 14:16 41.45846 -74.37083 7625 ft 290 kts 202°
2026-05-07 14:16 41.43921 -74.37909 7550 ft 291 kts 202°
2026-05-07 14:16 41.41994 -74.38735 7474 ft 290 kts 202°
2026-05-07 14:16 41.40081 -74.39557 7395 ft 288 kts 202°
2026-05-07 14:17 41.38177 -74.40380 7328 ft 288 kts 202°
2026-05-07 14:17 41.36270 -74.41201 7253 ft 290 kts 202°
2026-05-07 14:17 41.34356 -74.42026 7175 ft 289 kts 202°
2026-05-07 14:17 41.32442 -74.42849 7103 ft 290 kts 202°
2026-05-07 14:18 41.30521 -74.43672 7028 ft 290 kts 202°
2026-05-07 14:18 41.28606 -74.44494 6962 ft 288 kts 202°
2026-05-07 14:18 41.26702 -74.45308 6878 ft 287 kts 202°
2026-05-07 14:18 41.24803 -74.46122 6802 ft 288 kts 202°
2026-05-07 14:19 41.22895 -74.46948 6717 ft 289 kts 202°
2026-05-07 14:19 41.20979 -74.47765 6665 ft 289 kts 202°
2026-05-07 14:19 41.19060 -74.48580 6591 ft 291 kts 202°
2026-05-07 14:19 41.17134 -74.49403 6484 ft 292 kts 202°
2026-05-07 14:20 41.15204 -74.50225 6421 ft 291 kts 202°
2026-05-07 14:20 41.13289 -74.51041 6360 ft 286 kts 202°
2026-05-07 14:20 41.11395 -74.51851 6279 ft 287 kts 202°
2026-05-07 14:20 41.09488 -74.52665 6195 ft 287 kts 202°
2026-05-07 14:21 41.07583 -74.53471 6121 ft 287 kts 202°
2026-05-07 14:21 41.05639 -74.54091 6047 ft 291 kts 192°
2026-05-07 14:21 41.03609 -74.54324 5977 ft 295 kts 188°
2026-05-07 14:21 41.01540 -74.54454 5907 ft 298 kts 187°
2026-05-07 14:22 40.99470 -74.54582 5835 ft 297 kts 187°
2026-05-07 14:22 40.97414 -74.54733 5741 ft 296 kts 187°
2026-05-07 14:22 40.95355 -74.54899 5667 ft 296 kts 188°
2026-05-07 14:22 40.93336 -74.55076 5610 ft 293 kts 188°
2026-05-07 14:23 40.91302 -74.55258 5518 ft 292 kts 188°
2026-05-07 14:23 40.89285 -74.55437 5454 ft 289 kts 188°
2026-05-07 14:23 40.87277 -74.55622 5366 ft 288 kts 188°
2026-05-07 14:23 40.85317 -74.55800 5280 ft 277 kts 188°
2026-05-07 14:24 40.83433 -74.55971 5179 ft 266 kts 188°
2026-05-07 14:24 40.81628 -74.56019 5189 ft 257 kts 182°
2026-05-07 14:24 40.79855 -74.55920 5060 ft 253 kts 181°
2026-05-07 14:24 40.78113 -74.55801 4848 ft 248 kts 181°
2026-05-07 14:25 40.76403 -74.55688 4656 ft 245 kts 181°
2026-05-07 14:25 40.74715 -74.55585 4483 ft 243 kts 181°
2026-05-07 14:25 40.73027 -74.55491 4302 ft 242 kts 181°
2026-05-07 14:25 40.71347 -74.55400 4127 ft 241 kts 181°
2026-05-07 14:26 40.69663 -74.55306 3963 ft 243 kts 181°
2026-05-07 14:26 40.67969 -74.55218 3771 ft 242 kts 181°
2026-05-07 14:26 40.66316 -74.55134 3616 ft 234 kts 181°
2026-05-07 14:26 40.64743 -74.54991 3504 ft 226 kts 175°
2026-05-07 14:27 40.63174 -74.54670 3391 ft 225 kts 172°
2026-05-07 14:27 40.61664 -74.54301 3269 ft 223 kts 171°
2026-05-07 14:27 40.60154 -74.53911 3168 ft 219 kts 171°
2026-05-07 14:27 40.58642 -74.53517 3091 ft 222 kts 171°
2026-05-07 14:28 40.57129 -74.53124 2976 ft 221 kts 171°
2026-05-07 14:28 40.55613 -74.52717 2899 ft 224 kts 169°
2026-05-07 14:28 40.54099 -74.52280 2794 ft 222 kts 164°
2026-05-07 14:28 40.52800 -74.51232 2659 ft 222 kts 129°
2026-05-07 14:29 40.52149 -74.49454 2589 ft 215 kts 102°
2026-05-07 14:29 40.51832 -74.47529 2510 ft 214 kts 98°
2026-05-07 14:29 40.51556 -74.45641 2513 ft 208 kts 98°
2026-05-07 14:29 40.51281 -74.43775 2504 ft 209 kts 98°
2026-05-07 14:30 40.51005 -74.41908 2521 ft 208 kts 97°
2026-05-07 14:30 40.50738 -74.40026 2516 ft 212 kts 99°
2026-05-07 14:30 40.50537 -74.38091 2504 ft 214 kts 98°
2026-05-07 14:30 40.50379 -74.36147 2505 ft 213 kts 89°
2026-05-07 14:31 40.50633 -74.34254 2505 ft 211 kts 75°
2026-05-07 14:31 40.50983 -74.32361 2503 ft 216 kts 75°
2026-05-07 14:31 40.51341 -74.30424 2312 ft 220 kts 76°
2026-05-07 14:31 40.51801 -74.28563 2096 ft 212 kts 61°
2026-05-07 14:32 40.52815 -74.27275 2042 ft 199 kts 32°
2026-05-07 14:32 40.53986 -74.26310 2005 ft 198 kts 31°
2026-05-07 14:32 40.55195 -74.25425 2015 ft 195 kts 27°
2026-05-07 14:32 40.56398 -74.24640 2009 ft 195 kts 26°
2026-05-07 14:33 40.57618 -74.23866 2014 ft 193 kts 25°
2026-05-07 14:33 40.58764 -74.23138 1993 ft 174 kts 25°
2026-05-07 14:33 40.59815 -74.22476 1776 ft 160 kts 27°
2026-05-07 14:33 40.60774 -74.21868 1577 ft 147 kts 29°
2026-05-07 14:34 40.61673 -74.21296 1381 ft 140 kts 30°
2026-05-07 14:34 40.62524 -74.20751 1225 ft 129 kts 26°
2026-05-07 14:34 40.63294 -74.20261 1048 ft 123 kts 25°
2026-05-07 14:34 40.64055 -74.19776 905 ft 126 kts 25°
2026-05-07 14:35 40.64842 -74.19279 731 ft 127 kts 25°
2026-05-07 14:35 40.65640 -74.18770 579 ft 129 kts 22°
2026-05-07 14:35 40.66418 -74.18274 409 ft 129 kts 24°
2026-05-07 14:35 40.67216 -74.17762 238 ft 126 kts 21°
2026-05-07 14:36 40.68004 -74.17273 68 ft 126 kts 21°
2026-05-07 14:36 40.68738 -74.16806 31 ft 99 kts 27°
2026-05-07 14:36 40.69155 -74.16543 29 ft 41 kts 26°
2026-05-07 14:36 40.69345 -74.16453 29 ft 19 kts
2026-05-07 14:37 40.69445 -74.16455 28 ft 14 kts 356°
2026-05-07 14:37 40.69609 -74.16518 26 ft 12 kts 297°
2026-05-07 14:37 40.69648 -74.16619 27 ft 12 kts 297°
2026-05-07 14:38 40.69675 -74.16714 26 ft 9 kts 264°
2026-05-07 14:38 40.69632 -74.16773 26 ft 9 kts 212°
2026-05-07 14:38 40.69575 -74.16812 26 ft 9 kts 205°
2026-05-07 14:38 40.69517 -74.16848 27 ft 9 kts 205°
2026-05-07 14:39 40.69459 -74.16884 27 ft 9 kts 205°
2026-05-07 14:39 40.69402 -74.16920 27 ft 9 kts 205°
2026-05-07 14:39 40.69344 -74.16957 27 ft 9 kts 205°
2026-05-07 14:39 40.69286 -74.16993 29 ft 9 kts 206°
2026-05-07 14:40 40.69228 -74.17030 28 ft 9 kts 206°
2026-05-07 14:40 40.69175 -74.17064 27 ft 9 kts 206°
2026-05-07 14:40 40.69117 -74.17101 26 ft 9 kts 206°
2026-05-07 14:40 40.69060 -74.17138 29 ft 9 kts 206°
2026-05-07 14:41 40.69014 -74.17171 27 ft 7 kts 221°
2026-05-07 14:41 40.69004 -74.17231 28 ft 7 kts 281°
2026-05-07 14:41 40.68993 -74.17292 26 ft 7 kts 228°
2026-05-07 14:41 40.68968 -74.17346 26 ft 8 kts 272°
2026-05-07 14:42 40.68980 -74.17406 25 ft 5 kts 286°
2026-05-07 14:42 40.68987 -74.17438 26 ft 3 kts 285°
2026-05-07 14:42 40.68991 -74.17459 26 ft 1 kts 285°
2026-05-07 14:42 40.68992 -74.17466 26 ft 0 kts 285°